Time,TemperatureF,DewpointF,PressureIn,WindDirection,WindDirectionDegrees,WindSpeedMPH,WindSpeedGustMPH,Humidity,HourlyPrecipIn,Conditions,Clouds,dailyrainin,SoftwareType,DateUTC
2013-11-27 00:00:00,43.9,42.6,29.79,NNW,327,6.0,6.0,95,0.00,,,0.00,Wunderground v.1.15,2013-11-27 05:00:00,
2013-11-27 00:01:00,43.8,42.5,29.79,NW,315,6.0,6.0,95,0.00,,,0.00,Wunderground v.1.15,2013-11-27 05:01:00,
2013-11-27 00:02:00,43.8,42.5,29.79,NW,317,6.0,8.0,95,0.00,,,0.00,Wunderground v.1.15,2013-11-27 05:02:00,
2013-11-27 00:04:00,43.7,42.4,29.79,NW,324,6.0,8.0,95,0.00,,,0.00,Wunderground v.1.15,2013-11-27 05:04:00,
2013-11-27 00:05:00,43.7,42.1,29.79,WNW,292,7.0,9.0,94,0.00,,,0.00,Wunderground v.1.15,2013-11-27 05:05:00,
2013-11-27 00:08:00,43.6,42.0,29.79,WNW,287,8.0,15.0,94,0.00,,,0.00,Wunderground v.1.15,2013-11-27 05:08:00,
2013-11-27 00:10:00,43.5,41.9,29.79,WNW,302,8.0,8.0,94,0.00,,,0.00,Wunderground v.1.15,2013-11-27 05:10:00,
2013-11-27 00:11:00,43.4,41.8,29.79,NW,304,7.0,8.0,94,0.00,,,0.00,Wunderground v.1.15,2013-11-27 05:11:00,
2013-11-27 00:14:00,43.4,42.1,29.79,NW,313,6.0,8.0,95,0.00,,,0.00,Wunderground v.1.15,2013-11-27 05:14:00,
2013-11-27 00:16:00,43.3,42.0,29.79,WNW,292,5.0,8.0,95,0.00,,,0.00,Wunderground v.1.15,2013-11-27 05:16:00,
2013-11-27 00:17:00,43.3,42.0,29.79,NW,314,4.0,8.0,95,0.00,,,0.00,Wunderground v.1.15,2013-11-27 05:17:00,
2013-11-27 00:18:00,43.3,42.0,29.78,NNW,327,4.0,8.0,95,0.00,,,0.00,Wunderground v.1.15,2013-11-27 05:18:00,
2013-11-27 00:19:00,43.2,41.9,29.78,NNW,327,4.0,8.0,95,0.00,,,0.00,Wunderground v.1.15,2013-11-27 05:19:00,
2013-11-27 00:21:00,43.2,41.9,29.78,NNW,327,3.0,3.0,95,0.00,,,0.00,Wunderground v.1.15,2013-11-27 05:21:00,
2013-11-27 00:22:00,43.2,41.9,29.78,NW,326,2.0,4.0,95,0.00,,,0.00,Wunderground v.1.15,2013-11-27 05:22:00,
2013-11-27 00:24:00,43.2,41.9,29.78,NW,323,2.0,4.0,95,0.00,,,0.00,Wunderground v.1.15,2013-11-27 05:24:00,
2013-11-27 00:25:00,43.2,41.9,29.78,NW,312,2.0,4.0,95,0.00,,,0.00,Wunderground v.1.15,2013-11-27 05:25:00,
2013-11-27 00:29:00,43.2,41.9,29.78,NW,312,2.0,4.0,95,0.00,,,0.00,Wunderground v.1.15,2013-11-27 05:29:00,
2013-11-27 00:30:00,43.2,41.9,29.78,NNE,26,2.0,6.0,95,0.00,,,0.00,Wunderground v.1.15,2013-11-27 05:30:00,
2013-11-27 00:31:00,43.2,41.9,29.78,NW,309,2.0,6.0,95,0.00,,,0.00,Wunderground v.1.15,2013-11-27 05:31:00,
2013-11-27 00:32:00,43.2,41.9,29.78,WNW,302,2.0,6.0,95,0.00,,,0.00,Wunderground v.1.15,2013-11-27 05:32:00,
2013-11-27 00:33:00,43.1,41.8,29.78,West,275,3.0,6.0,95,0.00,,,0.00,Wunderground v.1.15,2013-11-27 05:33:00,
2013-11-27 00:35:00,43.1,41.8,29.78,West,275,2.0,6.0,95,0.00,,,0.00,Wunderground v.1.15,2013-11-27 05:35:00,
2013-11-27 00:36:00,43.1,41.8,29.78,West,281,2.0,6.0,95,0.00,,,0.00,Wunderground v.1.15,2013-11-27 05:36:00,
2013-11-27 00:37:00,43.1,41.8,29.77,WNW,282,2.0,6.0,95,0.00,,,0.00,Wunderground v.1.15,2013-11-27 05:37:00,
2013-11-27 00:38:00,43.0,41.7,29.77,WNW,282,2.0,6.0,95,0.00,,,0.00,Wunderground v.1.15,2013-11-27 05:38:00,
2013-11-27 00:41:00,42.9,41.6,29.77,North,350,2.0,4.0,95,0.00,,,0.00,Wunderground v.1.15,2013-11-27 05:41:00,
2013-11-27 00:42:00,42.9,41.6,29.76,NW,319,1.0,6.0,95,0.00,,,0.00,Wunderground v.1.15,2013-11-27 05:42:00,
2013-11-27 00:44:00,42.9,41.6,29.76,NNW,327,2.0,6.0,95,0.00,,,0.00,Wunderground v.1.15,2013-11-27 05:44:00,
2013-11-27 00:45:00,42.9,41.6,29.76,WNW,290,2.0,6.0,95,0.00,,,0.00,Wunderground v.1.15,2013-11-27 05:45:00,
2013-11-27 00:46:00,42.9,41.6,29.76,WNW,290,2.0,6.0,95,0.00,,,0.00,Wunderground v.1.15,2013-11-27 05:46:00,
2013-11-27 00:49:00,42.7,41.4,29.76,WNW,287,3.0,6.0,95,0.00,,,0.00,Wunderground v.1.15,2013-11-27 05:49:00,
2013-11-27 00:51:00,42.7,41.4,29.76,NNW,344,3.0,3.0,95,0.00,,,0.00,Wunderground v.1.15,2013-11-27 05:51:00,
2013-11-27 00:52:00,42.7,41.4,29.76,West,267,3.0,3.0,95,0.00,,,0.00,Wunderground v.1.15,2013-11-27 05:52:00,
2013-11-27 00:53:00,42.6,41.3,29.76,NW,304,2.0,5.0,95,0.00,,,0.00,Wunderground v.1.15,2013-11-27 05:53:00,
2013-11-27 00:55:00,42.5,41.2,29.76,WNW,300,2.0,5.0,95,0.00,,,0.00,Wunderground v.1.15,2013-11-27 05:55:00,
2013-11-27 00:58:00,42.4,41.1,29.77,West,273,2.0,5.0,95,0.00,,,0.01,Wunderground v.1.15,2013-11-27 05:58:00,
2013-11-27 01:00:00,42.3,41.0,29.76,NNE,32,3.0,6.0,95,0.00,,,0.01,Wunderground v.1.15,2013-11-27 06:00:00,
2013-11-27 01:01:00,42.2,40.9,29.75,NNW,343,4.0,8.0,95,0.00,,,0.01,Wunderground v.1.15,2013-11-27 06:01:00,
2013-11-27 01:02:00,42.2,40.9,29.75,WSW,258,4.0,14.0,95,0.00,,,0.01,Wunderground v.1.15,2013-11-27 06:02:00,
2013-11-27 01:04:00,42.1,40.8,29.77,West,276,5.0,14.0,95,0.00,,,0.01,Wunderground v.1.15,2013-11-27 06:04:00,
2013-11-27 01:06:00,42.0,40.7,29.76,North,355,6.0,14.0,95,0.00,,,0.01,Wunderground v.1.15,2013-11-27 06:06:00,
2013-11-27 01:07:00,42.0,40.7,29.75,NW,304,6.0,14.0,95,0.00,,,0.01,Wunderground v.1.15,2013-11-27 06:07:00,
2013-11-27 01:09:00,41.9,40.6,29.75,NNW,340,7.0,14.0,95,0.00,,,0.01,Wunderground v.1.15,2013-11-27 06:09:00,
2013-11-27 01:10:00,41.9,40.6,29.75,NW,309,7.0,7.0,95,0.00,,,0.01,Wunderground v.1.15,2013-11-27 06:10:00,
2013-11-27 01:14:00,41.8,40.5,29.74,NW,322,5.0,14.0,95,0.00,,,0.01,Wunderground v.1.15,2013-11-27 06:14:00,
2013-11-27 01:15:00,41.8,40.5,29.75,NW,322,4.0,14.0,95,0.00,,,0.01,Wunderground v.1.15,2013-11-27 06:15:00,
2013-11-27 01:16:00,41.7,40.4,29.75,NW,321,4.0,14.0,95,0.00,,,0.01,Wunderground v.1.15,2013-11-27 06:16:00,
2013-11-27 01:19:00,41.6,40.3,29.75,WNW,294,3.0,14.0,95,0.00,,,0.01,Wunderground v.1.15,2013-11-27 06:19:00,
2013-11-27 01:22:00,41.5,40.2,29.74,WNW,295,3.0,14.0,95,0.00,,,0.01,Wunderground v.1.15,2013-11-27 06:22:00,
2013-11-27 01:24:00,41.4,40.3,29.75,NW,306,4.0,14.0,96,0.00,,,0.01,Wunderground v.1.15,2013-11-27 06:24:00,
2013-11-27 01:25:00,41.4,40.3,29.75,WNW,302,4.0,14.0,96,0.00,,,0.01,Wunderground v.1.15,2013-11-27 06:25:00,
2013-11-27 01:27:00,41.3,40.2,29.74,NW,321,5.0,14.0,96,0.00,,,0.02,Wunderground v.1.15,2013-11-27 06:27:00,
2013-11-27 01:30:00,41.3,40.2,29.75,WNW,286,5.0,14.0,96,0.00,,,0.02,Wunderground v.1.15,2013-11-27 06:30:00,
2013-11-27 01:31:00,41.3,40.2,29.75,West,267,5.0,14.0,96,0.00,,,0.02,Wunderground v.1.15,2013-11-27 06:31:00,
2013-11-27 01:32:00,41.3,40.2,29.75,NW,323,5.0,14.0,96,0.00,,,0.02,Wunderground v.1.15,2013-11-27 06:32:00,
2013-11-27 01:33:00,41.3,40.2,29.74,North,350,5.0,14.0,96,0.00,,,0.02,Wunderground v.1.15,2013-11-27 06:33:00,
2013-11-27 01:34:00,41.3,40.2,29.74,North,355,5.0,14.0,96,0.00,,,0.02,Wunderground v.1.15,2013-11-27 06:34:00,
2013-11-27 01:36:00,41.3,40.0,29.73,North,350,5.0,14.0,95,0.00,,,0.02,Wunderground v.1.15,2013-11-27 06:36:00,
2013-11-27 01:38:00,41.2,39.9,29.73,NNW,337,5.0,14.0,95,0.00,,,0.02,Wunderground v.1.15,2013-11-27 06:38:00,
2013-11-27 01:39:00,41.3,40.0,29.73,NNW,337,5.0,14.0,95,0.00,,,0.02,Wunderground v.1.15,2013-11-27 06:39:00,
2013-11-27 01:40:00,41.3,40.0,29.74,NNW,336,5.0,5.0,95,0.00,,,0.02,Wunderground v.1.15,2013-11-27 06:40:00,
2013-11-27 01:41:00,41.2,39.9,29.73,NNW,336,5.0,14.0,95,0.00,,,0.02,Wunderground v.1.15,2013-11-27 06:41:00,
2013-11-27 01:44:00,41.1,39.8,29.71,NNE,24,4.0,14.0,95,0.04,,,0.03,Wunderground v.1.15,2013-11-27 06:44:00,
2013-11-27 01:45:00,41.1,39.5,29.70,North,355,5.0,14.0,94,0.04,,,0.03,Wunderground v.1.15,2013-11-27 06:45:00,
2013-11-27 01:46:00,41.0,39.4,29.70,NW,322,5.0,14.0,94,0.04,,,0.03,Wunderground v.1.15,2013-11-27 06:46:00,
2013-11-27 01:47:00,41.0,39.4,29.71,WNW,300,5.0,14.0,94,0.04,,,0.03,Wunderground v.1.15,2013-11-27 06:47:00,
2013-11-27 01:48:00,40.9,39.3,29.71,WNW,284,5.0,14.0,94,0.04,,,0.03,Wunderground v.1.15,2013-11-27 06:48:00,
2013-11-27 01:49:00,40.9,39.3,29.72,NW,319,6.0,14.0,94,0.04,,,0.03,Wunderground v.1.15,2013-11-27 06:49:00,
2013-11-27 01:52:00,40.8,39.2,29.75,West,275,8.0,19.0,94,0.08,,,0.04,Wunderground v.1.15,2013-11-27 06:52:00,
2013-11-27 01:53:00,40.8,39.2,29.75,West,276,8.0,19.0,94,0.08,,,0.04,Wunderground v.1.15,2013-11-27 06:53:00,
2013-11-27 01:54:00,40.7,39.1,29.75,NW,313,9.0,19.0,94,0.08,,,0.04,Wunderground v.1.15,2013-11-27 06:54:00,
2013-11-27 01:58:00,40.5,38.9,29.75,North,5,8.0,19.0,94,0.08,,,0.04,Wunderground v.1.15,2013-11-27 06:58:00,
2013-11-27 01:59:00,40.5,38.9,29.75,WNW,296,8.0,19.0,94,0.07,,,0.04,Wunderground v.1.15,2013-11-27 06:59:00,
2013-11-27 02:00:00,40.4,38.8,29.75,West,276,8.0,8.0,94,0.06,,,0.04,Wunderground v.1.15,2013-11-27 07:00:00,
2013-11-27 02:04:00,40.3,38.4,29.74,West,270,6.0,14.0,93,0.04,,,0.04,Wunderground v.1.15,2013-11-27 07:04:00,
2013-11-27 02:06:00,40.3,38.7,29.73,WSW,251,5.0,14.0,94,0.04,,,0.04,Wunderground v.1.15,2013-11-27 07:06:00,
2013-11-27 02:09:00,40.2,38.3,29.74,NW,315,5.0,14.0,93,0.00,,,0.04,Wunderground v.1.15,2013-11-27 07:09:00,
2013-11-27 02:10:00,40.2,38.3,29.73,North,351,5.0,14.0,93,0.00,,,0.04,Wunderground v.1.15,2013-11-27 07:10:00,
2013-11-27 02:11:00,40.2,38.3,29.73,NNE,26,5.0,14.0,93,0.00,,,0.04,Wunderground v.1.15,2013-11-27 07:11:00,
2013-11-27 02:13:00,40.2,38.3,29.74,NNW,337,4.0,14.0,93,0.00,,,0.04,Wunderground v.1.15,2013-11-27 07:13:00,
2013-11-27 02:14:00,40.2,38.1,29.74,NNE,29,4.0,14.0,92,0.00,,,0.04,Wunderground v.1.15,2013-11-27 07:14:00,
2013-11-27 02:16:00,40.2,38.1,29.74,WNW,298,4.0,14.0,92,0.00,,,0.04,Wunderground v.1.15,2013-11-27 07:16:00,
2013-11-27 02:17:00,40.1,38.0,29.74,NNE,19,4.0,14.0,92,0.00,,,0.04,Wunderground v.1.15,2013-11-27 07:17:00,
2013-11-27 02:20:00,40.1,37.7,29.73,NW,315,5.0,14.0,91,0.00,,,0.04,Wunderground v.1.15,2013-11-27 07:20:00,
2013-11-27 02:21:00,40.0,37.6,29.73,NNW,332,5.0,14.0,91,0.00,,,0.04,Wunderground v.1.15,2013-11-27 07:21:00,
2013-11-27 02:22:00,39.9,37.5,29.73,NNE,17,6.0,14.0,91,0.00,,,0.04,Wunderground v.1.15,2013-11-27 07:22:00,
2013-11-27 02:23:00,39.9,37.5,29.73,North,5,6.0,14.0,91,0.00,,,0.04,Wunderground v.1.15,2013-11-27 07:23:00,
2013-11-27 02:26:00,39.7,37.3,29.73,NNE,12,6.0,14.0,91,0.00,,,0.04,Wunderground v.1.15,2013-11-27 07:26:00,
2013-11-27 02:27:00,39.6,37.2,29.73,NNE,14,6.0,14.0,91,0.00,,,0.04,Wunderground v.1.15,2013-11-27 07:27:00,
2013-11-27 02:28:00,39.6,37.2,29.73,NW,311,6.0,14.0,91,0.00,,,0.04,Wunderground v.1.15,2013-11-27 07:28:00,
2013-11-27 02:29:00,39.5,37.1,29.73,NW,316,6.0,14.0,91,0.00,,,0.04,Wunderground v.1.15,2013-11-27 07:29:00,
2013-11-27 02:30:00,39.5,37.1,29.73,NW,316,5.0,5.0,91,0.00,,,0.04,Wunderground v.1.15,2013-11-27 07:30:00,
2013-11-27 02:32:00,39.5,37.1,29.73,NW,316,4.0,14.0,91,0.00,,,0.04,Wunderground v.1.15,2013-11-27 07:32:00,
2013-11-27 02:35:00,39.3,36.9,29.73,NNW,331,3.0,14.0,91,0.00,,,0.04,Wunderground v.1.15,2013-11-27 07:35:00,
2013-11-27 02:36:00,39.3,36.9,29.73,NW,309,3.0,14.0,91,0.00,,,0.04,Wunderground v.1.15,2013-11-27 07:36:00,
2013-11-27 02:37:00,39.3,36.9,29.73,NNW,332,4.0,14.0,91,0.00,,,0.04,Wunderground v.1.15,2013-11-27 07:37:00,
2013-11-27 02:40:00,39.2,36.8,29.73,NW,314,4.0,4.0,91,0.00,,,0.04,Wunderground v.1.15,2013-11-27 07:40:00,
2013-11-27 02:41:00,39.2,36.8,29.74,North,355,4.0,14.0,91,0.00,,,0.04,Wunderground v.1.15,2013-11-27 07:41:00,
2013-11-27 02:42:00,39.1,36.7,29.74,NNW,343,4.0,14.0,91,0.00,,,0.04,Wunderground v.1.15,2013-11-27 07:42:00,
2013-11-27 02:43:00,39.1,36.7,29.74,NNE,31,4.0,14.0,91,0.00,,,0.04,Wunderground v.1.15,2013-11-27 07:43:00,
2013-11-27 02:45:00,39.2,37.1,29.74,WNW,302,5.0,14.0,92,0.00,,,0.04,Wunderground v.1.15,2013-11-27 07:45:00,
2013-11-27 02:46:00,39.1,36.7,29.74,West,273,5.0,14.0,91,0.00,,,0.04,Wunderground v.1.15,2013-11-27 07:46:00,
2013-11-27 02:47:00,39.1,36.7,29.74,WNW,292,5.0,14.0,91,0.00,,,0.04,Wunderground v.1.15,2013-11-27 07:47:00,
2013-11-27 02:50:00,39.0,36.3,29.73,North,9,6.0,14.0,90,0.00,,,0.04,Wunderground v.1.15,2013-11-27 07:50:00,
2013-11-27 02:51:00,39.0,36.3,29.73,WNW,286,6.0,14.0,90,0.00,,,0.04,Wunderground v.1.15,2013-11-27 07:51:00,
2013-11-27 02:52:00,39.0,36.3,29.73,NW,325,6.0,14.0,90,0.00,,,0.04,Wunderground v.1.15,2013-11-27 07:52:00,
2013-11-27 02:55:00,39.0,36.3,29.73,NW,319,6.0,14.0,90,0.00,,,0.04,Wunderground v.1.15,2013-11-27 07:55:00,
2013-11-27 02:57:00,38.9,36.5,29.73,NW,311,6.0,14.0,91,0.00,,,0.04,Wunderground v.1.15,2013-11-27 07:57:00,
2013-11-27 02:59:00,38.8,36.4,29.73,NW,312,5.0,14.0,91,0.00,,,0.04,Wunderground v.1.15,2013-11-27 07:59:00,
2013-11-27 03:01:00,38.8,36.4,29.73,NW,312,4.0,14.0,91,0.00,,,0.04,Wunderground v.1.15,2013-11-27 08:01:00,
2013-11-27 03:02:00,38.8,36.4,29.73,NW,312,3.0,14.0,91,0.00,,,0.04,Wunderground v.1.15,2013-11-27 08:02:00,
2013-11-27 03:03:00,38.7,36.3,29.73,NW,314,3.0,14.0,91,0.00,,,0.04,Wunderground v.1.15,2013-11-27 08:03:00,
2013-11-27 03:04:00,38.7,36.3,29.73,WNW,301,2.0,14.0,91,0.00,,,0.04,Wunderground v.1.15,2013-11-27 08:04:00,
2013-11-27 03:06:00,38.7,36.3,29.73,North,5,2.0,14.0,91,0.00,,,0.04,Wunderground v.1.15,2013-11-27 08:06:00,
2013-11-27 03:08:00,38.7,36.0,29.74,NNW,331,3.0,14.0,90,0.00,,,0.04,Wunderground v.1.15,2013-11-27 08:08:00,
2013-11-27 03:09:00,38.7,36.3,29.74,NNW,327,3.0,14.0,91,0.00,,,0.04,Wunderground v.1.15,2013-11-27 08:09:00,
2013-11-27 03:11:00,38.6,35.9,29.73,NW,315,4.0,14.0,90,0.00,,,0.04,Wunderground v.1.15,2013-11-27 08:11:00,
2013-11-27 03:13:00,38.4,35.7,29.74,NE,36,5.0,14.0,90,0.00,,,0.04,Wunderground v.1.15,2013-11-27 08:13:00,
2013-11-27 03:14:00,38.4,35.7,29.73,NW,319,6.0,14.0,90,0.00,,,0.04,Wunderground v.1.15,2013-11-27 08:14:00,
2013-11-27 03:18:00,38.2,35.5,29.74,NW,304,7.0,14.0,90,0.00,,,0.04,Wunderground v.1.15,2013-11-27 08:18:00,
2013-11-27 03:19:00,38.1,35.4,29.74,NNW,327,7.0,14.0,90,0.00,,,0.04,Wunderground v.1.15,2013-11-27 08:19:00,
2013-11-27 03:20:00,38.1,35.4,29.74,NW,315,7.0,7.0,90,0.00,,,0.04,Wunderground v.1.15,2013-11-27 08:20:00,
2013-11-27 03:21:00,38.0,35.3,29.74,North,355,6.0,11.0,90,0.00,,,0.04,Wunderground v.1.15,2013-11-27 08:21:00,
2013-11-27 03:24:00,37.9,34.9,29.73,WNW,292,7.0,14.0,89,0.00,,,0.04,Wunderground v.1.15,2013-11-27 08:24:00,
2013-11-27 03:25:00,37.9,34.9,29.73,NNW,331,7.0,14.0,89,0.00,,,0.04,Wunderground v.1.15,2013-11-27 08:25:00,
2013-11-27 03:26:00,37.8,35.1,29.74,North,360,7.0,14.0,90,0.00,,,0.04,Wunderground v.1.15,2013-11-27 08:26:00,
2013-11-27 03:29:00,37.7,35.0,29.74,North,5,7.0,14.0,90,0.00,,,0.04,Wunderground v.1.15,2013-11-27 08:29:00,
2013-11-27 03:32:00,37.6,34.7,29.74,NW,321,7.0,14.0,89,0.00,,,0.04,Wunderground v.1.15,2013-11-27 08:32:00,
2013-11-27 03:33:00,37.5,34.6,29.74,NW,319,7.0,14.0,89,0.00,,,0.04,Wunderground v.1.15,2013-11-27 08:33:00,
2013-11-27 03:34:00,37.5,34.8,29.74,WSW,250,7.0,14.0,90,0.00,,,0.04,Wunderground v.1.15,2013-11-27 08:34:00,
2013-11-27 03:35:00,37.5,34.8,29.74,NW,319,6.0,14.0,90,0.00,,,0.04,Wunderground v.1.15,2013-11-27 08:35:00,
2013-11-27 03:38:00,37.3,34.6,29.74,WNW,292,5.0,14.0,90,0.00,,,0.04,Wunderground v.1.15,2013-11-27 08:38:00,
2013-11-27 03:39:00,37.3,34.6,29.74,NNW,348,4.0,14.0,90,0.00,,,0.04,Wunderground v.1.15,2013-11-27 08:39:00,
2013-11-27 03:41:00,37.2,34.3,29.74,NW,315,4.0,14.0,89,0.00,,,0.04,Wunderground v.1.15,2013-11-27 08:41:00,
2013-11-27 03:45:00,36.9,34.0,29.74,NW,319,5.0,14.0,89,0.00,,,0.04,Wunderground v.1.15,2013-11-27 08:45:00,
2013-11-27 03:46:00,36.8,33.9,29.74,NW,319,4.0,14.0,89,0.00,,,0.04,Wunderground v.1.15,2013-11-27 08:46:00,
2013-11-27 03:48:00,36.8,34.1,29.75,NW,315,4.0,14.0,90,0.00,,,0.04,Wunderground v.1.15,2013-11-27 08:48:00,
2013-11-27 03:49:00,36.7,34.0,29.75,NNE,30,4.0,14.0,90,0.00,,,0.04,Wunderground v.1.15,2013-11-27 08:49:00,
2013-11-27 03:50:00,36.7,33.8,29.74,NE,44,4.0,14.0,89,0.00,,,0.04,Wunderground v.1.15,2013-11-27 08:50:00,
2013-11-27 03:51:00,36.6,33.7,29.74,NNW,340,4.0,14.0,89,0.00,,,0.04,Wunderground v.1.15,2013-11-27 08:51:00,
2013-11-27 03:52:00,36.6,33.9,29.74,WNW,298,4.0,14.0,90,0.00,,,0.04,Wunderground v.1.15,2013-11-27 08:52:00,
2013-11-27 03:54:00,36.4,33.7,29.74,WNW,296,4.0,14.0,90,0.00,,,0.04,Wunderground v.1.15,2013-11-27 08:54:00,
2013-11-27 03:55:00,36.4,33.5,29.74,WNW,294,4.0,14.0,89,0.00,,,0.04,Wunderground v.1.15,2013-11-27 08:55:00,
2013-11-27 03:56:00,36.3,33.4,29.75,NNW,329,5.0,14.0,89,0.00,,,0.04,Wunderground v.1.15,2013-11-27 08:56:00,
2013-11-27 03:59:00,36.1,33.5,29.75,NNW,333,6.0,14.0,90,0.00,,,0.04,Wunderground v.1.15,2013-11-27 08:59:00,
2013-11-27 04:00:00,36.1,33.5,29.74,WNW,284,6.0,6.0,90,0.00,,,0.04,Wunderground v.1.15,2013-11-27 09:00:00,
2013-11-27 04:01:00,36.1,33.7,29.74,NW,312,6.0,14.0,91,0.00,,,0.04,Wunderground v.1.15,2013-11-27 09:01:00,
2013-11-27 04:04:00,36.0,33.4,29.75,WNW,302,5.0,14.0,90,0.00,,,0.04,Wunderground v.1.15,2013-11-27 09:04:00,
2013-11-27 04:05:00,36.0,33.4,29.75,West,273,5.0,14.0,90,0.00,,,0.04,Wunderground v.1.15,2013-11-27 09:05:00,
2013-11-27 04:06:00,35.9,33.3,29.75,WNW,298,5.0,14.0,90,0.00,,,0.04,Wunderground v.1.15,2013-11-27 09:06:00,
2013-11-27 04:08:00,35.7,33.1,29.75,North,350,5.0,14.0,90,0.00,,,0.04,Wunderground v.1.15,2013-11-27 09:08:00,
2013-11-27 04:09:00,35.6,33.0,29.75,NW,313,6.0,14.0,90,0.00,,,0.04,Wunderground v.1.15,2013-11-27 09:09:00,
2013-11-27 04:10:00,35.5,32.9,29.75,North,350,6.0,6.0,90,0.00,,,0.04,Wunderground v.1.15,2013-11-27 09:10:00,
2013-11-27 04:11:00,35.5,33.1,29.75,NW,307,6.0,14.0,91,0.00,,,0.04,Wunderground v.1.15,2013-11-27 09:11:00,
2013-11-27 04:17:00,35.3,33.2,29.75,NW,314,6.0,14.0,92,0.00,,,0.04,Wunderground v.1.15,2013-11-27 09:17:00,
2013-11-27 04:18:00,35.3,32.9,29.75,North,5,6.0,14.0,91,0.00,,,0.04,Wunderground v.1.15,2013-11-27 09:18:00,
2013-11-27 04:19:00,35.2,32.8,29.75,NW,309,5.0,14.0,91,0.00,,,0.04,Wunderground v.1.15,2013-11-27 09:19:00,
2013-11-27 04:22:00,35.1,32.7,29.75,NW,320,5.0,14.0,91,0.00,,,0.04,Wunderground v.1.15,2013-11-27 09:22:00,
2013-11-27 04:24:00,35.0,32.6,29.75,North,349,6.0,14.0,91,0.00,,,0.04,Wunderground v.1.15,2013-11-27 09:24:00,
2013-11-27 04:25:00,35.0,32.4,29.75,North,350,6.0,14.0,90,0.00,,,0.04,Wunderground v.1.15,2013-11-27 09:25:00,
2013-11-27 04:28:00,34.9,32.3,29.75,WNW,282,6.0,14.0,90,0.00,,,0.04,Wunderground v.1.15,2013-11-27 09:28:00,
2013-11-27 04:29:00,34.9,32.3,29.75,WNW,288,6.0,14.0,90,0.00,,,0.04,Wunderground v.1.15,2013-11-27 09:29:00,
2013-11-27 04:30:00,34.8,32.2,29.75,WNW,298,6.0,6.0,90,0.00,,,0.04,Wunderground v.1.15,2013-11-27 09:30:00,
2013-11-27 04:31:00,34.8,32.4,29.75,NW,312,6.0,14.0,91,0.00,,,0.04,Wunderground v.1.15,2013-11-27 09:31:00,
2013-11-27 04:33:00,34.8,32.4,29.75,North,355,5.0,14.0,91,0.00,,,0.04,Wunderground v.1.15,2013-11-27 09:33:00,
2013-11-27 04:34:00,34.7,32.3,29.75,WNW,293,5.0,14.0,91,0.00,,,0.04,Wunderground v.1.15,2013-11-27 09:34:00,
2013-11-27 04:35:00,34.7,32.3,29.75,North,5,4.0,14.0,91,0.00,,,0.04,Wunderground v.1.15,2013-11-27 09:35:00,
2013-11-27 04:36:00,34.7,32.1,29.74,NW,318,4.0,14.0,90,0.00,,,0.04,Wunderground v.1.15,2013-11-27 09:36:00,
2013-11-27 04:37:00,34.7,32.1,29.75,West,278,4.0,14.0,90,0.00,,,0.04,Wunderground v.1.15,2013-11-27 09:37:00,
2013-11-27 04:39:00,34.6,32.0,29.75,NW,325,5.0,14.0,90,0.00,,,0.04,Wunderground v.1.15,2013-11-27 09:39:00,
2013-11-27 04:42:00,34.5,32.1,29.74,NW,311,6.0,14.0,91,0.00,,,0.04,Wunderground v.1.15,2013-11-27 09:42:00,
2013-11-27 04:43:00,34.5,31.9,29.74,NW,306,6.0,14.0,90,0.00,,,0.04,Wunderground v.1.15,2013-11-27 09:43:00,
2013-11-27 04:45:00,34.4,31.8,29.75,NNW,346,7.0,14.0,90,0.00,,,0.04,Wunderground v.1.15,2013-11-27 09:45:00,
2013-11-27 04:46:00,34.4,32.0,29.75,NNW,346,7.0,14.0,91,0.00,,,0.04,Wunderground v.1.15,2013-11-27 09:46:00,
2013-11-27 04:48:00,34.4,32.0,29.75,WNW,297,5.0,14.0,91,0.00,,,0.04,Wunderground v.1.15,2013-11-27 09:48:00,
2013-11-27 04:49:00,34.4,32.0,29.75,NW,306,5.0,14.0,91,0.00,,,0.04,Wunderground v.1.15,2013-11-27 09:49:00,
2013-11-27 04:51:00,34.3,31.9,29.75,NW,312,4.0,11.0,91,0.00,,,0.04,Wunderground v.1.15,2013-11-27 09:51:00,
2013-11-27 04:53:00,34.3,31.7,29.75,NW,304,5.0,14.0,90,0.00,,,0.04,Wunderground v.1.15,2013-11-27 09:53:00,
2013-11-27 04:54:00,34.3,31.7,29.75,West,275,5.0,14.0,90,0.00,,,0.04,Wunderground v.1.15,2013-11-27 09:54:00,
2013-11-27 04:55:00,34.3,31.7,29.75,NW,312,4.0,14.0,90,0.00,,,0.04,Wunderground v.1.15,2013-11-27 09:55:00,
2013-11-27 04:56:00,34.3,31.7,29.75,WNW,300,4.0,14.0,90,0.00,,,0.04,Wunderground v.1.15,2013-11-27 09:56:00,
2013-11-27 04:59:00,34.2,31.6,29.75,NNW,329,6.0,14.0,90,0.00,,,0.04,Wunderground v.1.15,2013-11-27 09:59:00,
2013-11-27 05:00:00,34.2,31.3,29.75,North,5,6.0,14.0,89,0.00,,,0.04,Wunderground v.1.15,2013-11-27 10:00:00,
2013-11-27 05:01:00,34.2,31.3,29.75,NNW,341,7.0,14.0,89,0.00,,,0.04,Wunderground v.1.15,2013-11-27 10:01:00,
2013-11-27 05:02:00,34.2,31.3,29.75,WNW,298,7.0,14.0,89,0.00,,,0.04,Wunderground v.1.15,2013-11-27 10:02:00,
2013-11-27 05:06:00,34.1,31.2,29.75,West,276,7.0,14.0,89,0.00,,,0.04,Wunderground v.1.15,2013-11-27 10:06:00,
2013-11-27 05:08:00,34.1,31.2,29.75,NW,307,8.0,14.0,89,0.00,,,0.04,Wunderground v.1.15,2013-11-27 10:08:00,
2013-11-27 05:10:00,34.0,31.1,29.75,WNW,292,8.0,14.0,89,0.00,,,0.04,Wunderground v.1.15,2013-11-27 10:10:00,
2013-11-27 05:12:00,34.0,31.1,29.75,WNW,302,7.0,14.0,89,0.00,,,0.04,Wunderground v.1.15,2013-11-27 10:12:00,
2013-11-27 05:14:00,34.0,31.1,29.75,NW,304,8.0,14.0,89,0.00,,,0.04,Wunderground v.1.15,2013-11-27 10:14:00,
2013-11-27 05:15:00,33.9,31.0,29.75,NW,313,8.0,14.0,89,0.00,,,0.04,Wunderground v.1.15,2013-11-27 10:15:00,
2013-11-27 05:16:00,33.9,31.0,29.75,WNW,294,7.0,14.0,89,0.00,,,0.04,Wunderground v.1.15,2013-11-27 10:16:00,
2013-11-27 05:19:00,33.8,31.2,29.75,North,5,6.0,14.0,90,0.00,,,0.04,Wunderground v.1.15,2013-11-27 10:19:00,
2013-11-27 05:20:00,33.8,30.9,29.75,North,9,6.0,14.0,89,0.00,,,0.04,Wunderground v.1.15,2013-11-27 10:20:00,
2013-11-27 05:21:00,33.8,30.6,29.75,WNW,297,6.0,14.0,88,0.00,,,0.04,Wunderground v.1.15,2013-11-27 10:21:00,
2013-11-27 05:24:00,33.8,30.6,29.75,NW,306,6.0,14.0,88,0.00,,,0.04,Wunderground v.1.15,2013-11-27 10:24:00,
2013-11-27 05:25:00,33.8,30.9,29.75,NNW,340,6.0,14.0,89,0.00,,,0.04,Wunderground v.1.15,2013-11-27 10:25:00,
2013-11-27 05:27:00,33.7,30.8,29.75,WNW,286,6.0,14.0,89,0.00,,,0.04,Wunderground v.1.15,2013-11-27 10:27:00,
2013-11-27 05:29:00,33.7,30.5,29.75,NW,314,6.0,14.0,88,0.00,,,0.04,Wunderground v.1.15,2013-11-27 10:29:00,
2013-11-27 05:30:00,33.7,30.5,29.75,NW,320,6.0,14.0,88,0.00,,,0.04,Wunderground v.1.15,2013-11-27 10:30:00,
2013-11-27 05:31:00,33.7,30.5,29.75,North,5,6.0,14.0,88,0.00,,,0.04,Wunderground v.1.15,2013-11-27 10:31:00,
2013-11-27 05:32:00,33.7,30.5,29.75,NNW,338,7.0,14.0,88,0.00,,,0.04,Wunderground v.1.15,2013-11-27 10:32:00,
2013-11-27 05:36:00,33.7,30.0,29.75,NNW,331,8.0,14.0,86,0.00,,,0.04,Wunderground v.1.15,2013-11-27 10:36:00,
2013-11-27 05:37:00,33.7,30.0,29.75,NW,315,9.0,14.0,86,0.00,,,0.04,Wunderground v.1.15,2013-11-27 10:37:00,
2013-11-27 05:38:00,33.8,30.1,29.75,NW,311,10.0,14.0,86,0.00,,,0.04,Wunderground v.1.15,2013-11-27 10:38:00,
2013-11-27 05:39:00,33.7,30.0,29.75,North,350,11.0,24.0,86,0.00,,,0.04,Wunderground v.1.15,2013-11-27 10:39:00,
2013-11-27 05:42:00,33.8,30.3,29.76,WNW,296,12.0,14.0,87,0.00,,,0.04,Wunderground v.1.15,2013-11-27 10:42:00,
2013-11-27 05:45:00,33.8,30.3,29.76,NNW,333,10.0,14.0,87,0.00,,,0.04,Wunderground v.1.15,2013-11-27 10:45:00,
2013-11-27 05:47:00,33.7,30.0,29.76,NW,305,9.0,14.0,86,0.00,,,0.04,Wunderground v.1.15,2013-11-27 10:47:00,
2013-11-27 05:49:00,33.6,29.9,29.76,WNW,292,8.0,14.0,86,0.00,,,0.04,Wunderground v.1.15,2013-11-27 10:49:00,
2013-11-27 05:50:00,33.6,29.9,29.76,NNE,26,7.0,7.0,86,0.00,,,0.04,Wunderground v.1.15,2013-11-27 10:50:00,
2013-11-27 05:51:00,33.6,30.1,29.76,NNW,348,7.0,8.0,87,0.00,,,0.04,Wunderground v.1.15,2013-11-27 10:51:00,
2013-11-27 05:54:00,33.4,29.7,29.76,NW,321,8.0,14.0,86,0.00,,,0.04,Wunderground v.1.15,2013-11-27 10:54:00,
2013-11-27 05:55:00,33.4,29.7,29.76,NW,326,8.0,14.0,86,0.00,,,0.04,Wunderground v.1.15,2013-11-27 10:55:00,
2013-11-27 05:56:00,33.3,29.8,29.76,NNW,329,8.0,14.0,87,0.00,,,0.04,Wunderground v.1.15,2013-11-27 10:56:00,
2013-11-27 06:00:00,33.1,29.7,29.76,NNW,328,7.0,7.0,87,0.00,,,0.04,Wunderground v.1.15,2013-11-27 11:00:00,
2013-11-27 06:03:00,33.0,29.8,29.77,WNW,303,7.0,14.0,88,0.00,,,0.04,Wunderground v.1.15,2013-11-27 11:03:00,
2013-11-27 06:04:00,33.0,29.8,29.76,NW,313,6.0,14.0,88,0.00,,,0.04,Wunderground v.1.15,2013-11-27 11:04:00,
2013-11-27 06:05:00,33.0,29.8,29.76,NW,307,6.0,14.0,88,0.00,,,0.04,Wunderground v.1.15,2013-11-27 11:05:00,
2013-11-27 06:06:00,32.9,29.5,29.76,North,355,6.0,14.0,87,0.00,,,0.04,Wunderground v.1.15,2013-11-27 11:06:00,
2013-11-27 06:08:00,32.8,29.4,29.76,WNW,297,7.0,14.0,87,0.00,,,0.04,Wunderground v.1.15,2013-11-27 11:08:00,
2013-11-27 06:11:00,32.8,29.4,29.77,WSW,250,8.0,14.0,87,0.00,,,0.04,Wunderground v.1.15,2013-11-27 11:11:00,
2013-11-27 06:12:00,32.8,29.4,29.76,NW,324,8.0,14.0,87,0.00,,,0.04,Wunderground v.1.15,2013-11-27 11:12:00,
2013-11-27 06:13:00,32.7,29.3,29.76,NNW,331,9.0,14.0,87,0.00,,,0.04,Wunderground v.1.15,2013-11-27 11:13:00,
2013-11-27 06:14:00,32.7,29.0,29.77,NW,316,10.0,14.0,86,0.00,,,0.04,Wunderground v.1.15,2013-11-27 11:14:00,
2013-11-27 06:18:00,32.6,29.2,29.77,NW,321,10.0,14.0,87,0.00,,,0.04,Wunderground v.1.15,2013-11-27 11:18:00,
2013-11-27 06:19:00,32.6,29.2,29.77,WNW,297,10.0,14.0,87,0.00,,,0.04,Wunderground v.1.15,2013-11-27 11:19:00,
2013-11-27 06:20:00,32.6,29.2,29.77,NW,319,9.0,14.0,87,0.00,,,0.04,Wunderground v.1.15,2013-11-27 11:20:00,
2013-11-27 06:23:00,32.5,28.8,29.76,West,279,9.0,14.0,86,0.00,,,0.04,Wunderground v.1.15,2013-11-27 11:23:00,
2013-11-27 06:24:00,32.5,29.1,29.76,NW,315,9.0,14.0,87,0.00,,,0.04,Wunderground v.1.15,2013-11-27 11:24:00,
2013-11-27 06:25:00,32.5,29.1,29.76,NNW,327,9.0,14.0,87,0.00,,,0.04,Wunderground v.1.15,2013-11-27 11:25:00,
2013-11-27 06:26:00,32.5,29.1,29.76,NW,304,8.0,14.0,87,0.00,,,0.04,Wunderground v.1.15,2013-11-27 11:26:00,
2013-11-27 06:27:00,32.5,29.1,29.76,WNW,297,9.0,14.0,87,0.00,,,0.04,Wunderground v.1.15,2013-11-27 11:27:00,
2013-11-27 06:28:00,32.4,29.0,29.76,WNW,302,9.0,14.0,87,0.00,,,0.04,Wunderground v.1.15,2013-11-27 11:28:00,
2013-11-27 06:32:00,32.4,28.7,29.76,NNW,341,9.0,14.0,86,0.00,,,0.04,Wunderground v.1.15,2013-11-27 11:32:00,
2013-11-27 06:33:00,32.4,29.0,29.76,WNW,284,9.0,14.0,87,0.00,,,0.04,Wunderground v.1.15,2013-11-27 11:33:00,
2013-11-27 06:36:00,32.3,28.6,29.76,North,9,9.0,14.0,86,0.00,,,0.04,Wunderground v.1.15,2013-11-27 11:36:00,
2013-11-27 06:37:00,32.3,28.9,29.76,NW,321,9.0,14.0,87,0.00,,,0.04,Wunderground v.1.15,2013-11-27 11:37:00,
2013-11-27 06:38:00,32.3,28.9,29.76,NW,307,9.0,20.0,87,0.00,,,0.04,Wunderground v.1.15,2013-11-27 11:38:00,
2013-11-27 06:40:00,32.2,28.8,29.76,North,355,9.0,14.0,87,0.00,,,0.04,Wunderground v.1.15,2013-11-27 11:40:00,
2013-11-27 06:41:00,32.2,28.8,29.76,North,360,9.0,14.0,87,0.00,,,0.04,Wunderground v.1.15,2013-11-27 11:41:00,
2013-11-27 06:43:00,32.1,28.4,29.76,NNW,341,9.0,14.0,86,0.00,,,0.04,Wunderground v.1.15,2013-11-27 11:43:00,
2013-11-27 06:46:00,32.1,28.7,29.76,NW,306,9.0,14.0,87,0.00,,,0.04,Wunderground v.1.15,2013-11-27 11:46:00,
2013-11-27 06:48:00,32.1,28.7,29.76,WNW,301,9.0,14.0,87,0.00,,,0.04,Wunderground v.1.15,2013-11-27 11:48:00,
2013-11-27 06:49:00,32.0,28.6,29.76,NW,306,8.0,14.0,87,0.00,,,0.04,Wunderground v.1.15,2013-11-27 11:49:00,
2013-11-27 06:51:00,32.0,28.6,29.76,WNW,300,8.0,14.0,87,0.00,,,0.04,Wunderground v.1.15,2013-11-27 11:51:00,
2013-11-27 06:53:00,31.9,28.5,29.76,NNW,347,8.0,20.0,87,0.00,,,0.04,Wunderground v.1.15,2013-11-27 11:53:00,
2013-11-27 06:54:00,31.9,28.5,29.76,North,355,9.0,20.0,87,0.00,,,0.04,Wunderground v.1.15,2013-11-27 11:54:00,
2013-11-27 06:57:00,31.9,28.5,29.77,WNW,300,10.0,20.0,87,0.00,,,0.04,Wunderground v.1.15,2013-11-27 11:57:00,
2013-11-27 06:59:00,31.8,28.4,29.77,WNW,289,10.0,20.0,87,0.00,,,0.04,Wunderground v.1.15,2013-11-27 11:59:00,
2013-11-27 07:01:00,31.8,28.4,29.77,NNW,340,10.0,14.0,87,0.00,,,0.04,Wunderground v.1.15,2013-11-27 12:01:00,
2013-11-27 07:03:00,31.7,28.3,29.76,NNW,339,11.0,14.0,87,0.00,,,0.04,Wunderground v.1.15,2013-11-27 12:03:00,
2013-11-27 07:05:00,31.6,28.2,29.77,NW,310,10.0,14.0,87,0.00,,,0.04,Wunderground v.1.15,2013-11-27 12:05:00,
2013-11-27 07:07:00,31.6,28.2,29.77,NW,311,10.0,14.0,87,0.00,,,0.04,Wunderground v.1.15,2013-11-27 12:07:00,
2013-11-27 07:08:00,31.6,28.2,29.76,North,360,10.0,14.0,87,0.00,,,0.04,Wunderground v.1.15,2013-11-27 12:08:00,
2013-11-27 07:09:00,31.6,28.2,29.76,NNW,336,10.0,14.0,87,0.00,,,0.04,Wunderground v.1.15,2013-11-27 12:09:00,
2013-11-27 07:11:00,31.6,27.9,29.77,WNW,301,10.0,14.0,86,0.00,,,0.04,Wunderground v.1.15,2013-11-27 12:11:00,
2013-11-27 07:13:00,31.5,28.1,29.77,NW,323,9.0,14.0,87,0.00,,,0.04,Wunderground v.1.15,2013-11-27 12:13:00,
2013-11-27 07:14:00,31.5,28.1,29.77,North,350,9.0,14.0,87,0.00,,,0.04,Wunderground v.1.15,2013-11-27 12:14:00,
2013-11-27 07:16:00,31.5,27.8,29.77,NNW,346,10.0,14.0,86,0.00,,,0.04,Wunderground v.1.15,2013-11-27 12:16:00,
2013-11-27 07:18:00,31.5,27.8,29.77,NW,306,9.0,14.0,86,0.00,,,0.04,Wunderground v.1.15,2013-11-27 12:18:00,
2013-11-27 07:19:00,31.5,27.8,29.77,NW,306,9.0,14.0,86,0.00,,,0.04,Wunderground v.1.15,2013-11-27 12:19:00,
2013-11-27 07:22:00,31.5,27.8,29.77,North,349,9.0,14.0,86,0.00,,,0.04,Wunderground v.1.15,2013-11-27 12:22:00,
2013-11-27 07:23:00,31.5,27.8,29.77,NW,311,9.0,14.0,86,0.00,,,0.04,Wunderground v.1.15,2013-11-27 12:23:00,
2013-11-27 07:24:00,31.5,27.8,29.77,NW,312,9.0,14.0,86,0.00,,,0.04,Wunderground v.1.15,2013-11-27 12:24:00,
2013-11-27 07:27:00,31.5,27.8,29.78,WNW,301,9.0,14.0,86,0.00,,,0.04,Wunderground v.1.15,2013-11-27 12:27:00,
2013-11-27 07:29:00,31.5,27.8,29.78,WNW,299,9.0,14.0,86,0.00,,,0.04,Wunderground v.1.15,2013-11-27 12:29:00,
2013-11-27 07:31:00,31.5,27.8,29.78,WNW,302,9.0,9.0,86,0.00,,,0.04,Wunderground v.1.15,2013-11-27 12:31:00,
2013-11-27 07:32:00,31.5,27.5,29.78,NNW,333,9.0,14.0,85,0.00,,,0.04,Wunderground v.1.15,2013-11-27 12:32:00,
2013-11-27 07:34:00,31.5,27.8,29.78,North,5,8.0,19.0,86,0.00,,,0.04,Wunderground v.1.15,2013-11-27 12:34:00,
2013-11-27 07:35:00,31.5,27.2,29.78,NW,316,8.0,19.0,84,0.00,,,0.04,Wunderground v.1.15,2013-11-27 12:35:00,
2013-11-27 07:37:00,31.6,27.3,29.78,WNW,284,9.0,19.0,84,0.00,,,0.04,Wunderground v.1.15,2013-11-27 12:37:00,
2013-11-27 07:39:00,31.6,27.6,29.78,WNW,295,8.0,19.0,85,0.00,,,0.04,Wunderground v.1.15,2013-11-27 12:39:00,
2013-11-27 07:40:00,31.5,27.5,29.78,NNW,336,8.0,8.0,85,0.00,,,0.04,Wunderground v.1.15,2013-11-27 12:40:00,
2013-11-27 07:41:00,31.5,27.8,29.78,NNW,348,8.0,14.0,86,0.00,,,0.04,Wunderground v.1.15,2013-11-27 12:41:00,
2013-11-27 07:43:00,31.5,27.5,29.78,NNW,327,8.0,14.0,85,0.00,,,0.04,Wunderground v.1.15,2013-11-27 12:43:00,
2013-11-27 07:44:00,31.5,27.5,29.79,NW,325,8.0,15.0,85,0.00,,,0.04,Wunderground v.1.15,2013-11-27 12:44:00,
2013-11-27 07:45:00,31.5,27.2,29.78,NW,311,8.0,15.0,84,0.00,,,0.04,Wunderground v.1.15,2013-11-27 12:45:00,
2013-11-27 07:46:00,31.6,27.3,29.79,NW,314,8.0,15.0,84,0.00,,,0.04,Wunderground v.1.15,2013-11-27 12:46:00,
2013-11-27 07:48:00,31.6,27.3,29.79,NW,311,9.0,15.0,84,0.00,,,0.04,Wunderground v.1.15,2013-11-27 12:48:00,
2013-11-27 07:51:00,31.6,27.3,29.79,NNW,329,9.0,10.0,84,0.00,,,0.04,Wunderground v.1.15,2013-11-27 12:51:00,
2013-11-27 07:52:00,31.6,27.3,29.79,West,264,9.0,14.0,84,0.00,,,0.04,Wunderground v.1.15,2013-11-27 12:52:00,
2013-11-27 07:54:00,31.6,27.3,29.79,WNW,300,9.0,14.0,84,0.00,,,0.04,Wunderground v.1.15,2013-11-27 12:54:00,
2013-11-27 07:56:00,31.6,27.3,29.79,NW,311,8.0,14.0,84,0.00,,,0.04,Wunderground v.1.15,2013-11-27 12:56:00,
2013-11-27 07:57:00,31.6,27.3,29.80,NNW,344,8.0,14.0,84,0.00,,,0.04,Wunderground v.1.15,2013-11-27 12:57:00,
2013-11-27 08:00:00,31.6,27.3,29.80,NNW,331,9.0,14.0,84,0.00,,,0.04,Wunderground v.1.15,2013-11-27 13:00:00,
2013-11-27 08:01:00,31.6,27.3,29.80,WNW,303,9.0,14.0,84,0.00,,,0.04,Wunderground v.1.15,2013-11-27 13:01:00,
2013-11-27 08:03:00,31.6,27.3,29.80,West,278,9.0,14.0,84,0.00,,,0.04,Wunderground v.1.15,2013-11-27 13:03:00,
2013-11-27 08:04:00,31.5,27.2,29.80,WNW,302,10.0,18.0,84,0.00,,,0.04,Wunderground v.1.15,2013-11-27 13:04:00,
2013-11-27 08:06:00,31.5,27.2,29.81,WNW,293,10.0,18.0,84,0.00,,,0.04,Wunderground v.1.15,2013-11-27 13:06:00,
2013-11-27 08:07:00,31.4,27.1,29.80,NW,317,11.0,18.0,84,0.00,,,0.04,Wunderground v.1.15,2013-11-27 13:07:00,
2013-11-27 08:08:00,31.4,27.1,29.80,NW,311,11.0,18.0,84,0.00,,,0.04,Wunderground v.1.15,2013-11-27 13:08:00,
2013-11-27 08:10:00,31.2,27.2,29.80,NW,304,12.0,12.0,85,0.00,,,0.04,Wunderground v.1.15,2013-11-27 13:10:00,
2013-11-27 08:12:00,31.2,27.2,29.80,WNW,286,11.0,14.0,85,0.00,,,0.04,Wunderground v.1.15,2013-11-27 13:12:00,
2013-11-27 08:13:00,31.1,27.1,29.80,WNW,297,11.0,14.0,85,0.00,,,0.04,Wunderground v.1.15,2013-11-27 13:13:00,
2013-11-27 08:14:00,31.0,27.3,29.80,NNW,327,11.0,14.0,86,0.00,,,0.04,Wunderground v.1.15,2013-11-27 13:14:00,
2013-11-27 08:16:00,30.9,27.2,29.80,North,355,10.0,14.0,86,0.00,,,0.04,Wunderground v.1.15,2013-11-27 13:16:00,
2013-11-27 08:19:00,30.8,27.4,29.80,NW,309,9.0,14.0,87,0.00,,,0.04,Wunderground v.1.15,2013-11-27 13:19:00,
2013-11-27 08:21:00,30.7,27.3,29.80,WNW,300,9.0,14.0,87,0.00,,,0.04,Wunderground v.1.15,2013-11-27 13:21:00,
2013-11-27 08:22:00,30.6,27.2,29.80,NW,304,10.0,20.0,87,0.00,,,0.04,Wunderground v.1.15,2013-11-27 13:22:00,
2013-11-27 08:23:00,30.5,27.4,29.80,NW,307,10.0,20.0,88,0.00,,,0.04,Wunderground v.1.15,2013-11-27 13:23:00,
2013-11-27 08:24:00,30.4,27.3,29.80,NNW,329,10.0,20.0,88,0.00,,,0.04,Wunderground v.1.15,2013-11-27 13:24:00,
2013-11-27 08:25:00,30.3,27.4,29.81,NW,323,10.0,20.0,89,0.00,,,0.04,Wunderground v.1.15,2013-11-27 13:25:00,
2013-11-27 08:27:00,30.2,27.6,29.81,West,274,9.0,20.0,90,0.00,,,0.04,Wunderground v.1.15,2013-11-27 13:27:00,
2013-11-27 08:29:00,30.1,27.5,29.81,WSW,251,8.0,20.0,90,0.00,,,0.04,Wunderground v.1.15,2013-11-27 13:29:00,
2013-11-27 08:30:00,30.0,27.4,29.81,NNW,333,8.0,14.0,90,0.00,,,0.04,Wunderground v.1.15,2013-11-27 13:30:00,
2013-11-27 08:32:00,29.9,27.3,29.81,West,273,8.0,14.0,90,0.00,,,0.04,Wunderground v.1.15,2013-11-27 13:32:00,
2013-11-27 08:34:00,29.7,27.4,29.81,WNW,284,7.0,14.0,91,0.00,,,0.04,Wunderground v.1.15,2013-11-27 13:34:00,
2013-11-27 08:35:00,29.6,27.3,29.81,West,277,7.0,15.0,91,0.00,,,0.04,Wunderground v.1.15,2013-11-27 13:35:00,
2013-11-27 08:36:00,29.6,27.3,29.81,WNW,292,7.0,15.0,91,0.00,,,0.04,Wunderground v.1.15,2013-11-27 13:36:00,
2013-11-27 08:37:00,29.5,27.5,29.81,NW,315,8.0,15.0,92,0.00,,,0.04,Wunderground v.1.15,2013-11-27 13:37:00,
2013-11-27 08:42:00,29.4,27.4,29.82,WNW,300,8.0,14.0,92,0.00,,,0.04,Wunderground v.1.15,2013-11-27 13:42:00,
2013-11-27 08:43:00,29.3,27.3,29.82,NW,307,8.0,14.0,92,0.00,,,0.04,Wunderground v.1.15,2013-11-27 13:43:00,
2013-11-27 08:44:00,29.3,27.5,29.82,NW,319,8.0,14.0,93,0.00,,,0.04,Wunderground v.1.15,2013-11-27 13:44:00,
2013-11-27 08:45:00,29.3,27.5,29.82,NW,326,9.0,14.0,93,0.00,,,0.04,Wunderground v.1.15,2013-11-27 13:45:00,
2013-11-27 08:47:00,29.2,27.4,29.82,NW,319,9.0,14.0,93,0.00,,,0.04,Wunderground v.1.15,2013-11-27 13:47:00,
2013-11-27 08:49:00,29.1,27.3,29.82,NW,315,9.0,14.0,93,0.00,,,0.04,Wunderground v.1.15,2013-11-27 13:49:00,
2013-11-27 08:50:00,29.0,27.2,29.82,North,5,9.0,14.0,93,0.00,,,0.04,Wunderground v.1.15,2013-11-27 13:50:00,
2013-11-27 08:51:00,29.0,27.2,29.82,WNW,303,9.0,14.0,93,0.00,,,0.04,Wunderground v.1.15,2013-11-27 13:51:00,
2013-11-27 08:55:00,28.9,27.4,29.82,WNW,284,8.0,14.0,94,0.00,,,0.04,Wunderground v.1.15,2013-11-27 13:55:00,
2013-11-27 08:58:00,28.8,27.3,29.82,WSW,240,8.0,14.0,94,0.00,,,0.04,Wunderground v.1.15,2013-11-27 13:58:00,
2013-11-27 08:59:00,28.8,27.3,29.82,WNW,283,7.0,14.0,94,0.00,,,0.04,Wunderground v.1.15,2013-11-27 13:59:00,
2013-11-27 09:00:00,28.8,27.3,29.82,NW,304,7.0,7.0,94,0.00,,,0.04,Wunderground v.1.15,2013-11-27 14:00:00,
2013-11-27 09:02:00,28.8,27.3,29.82,NW,309,6.0,14.0,94,0.00,,,0.04,Wunderground v.1.15,2013-11-27 14:02:00,
2013-11-27 09:05:00,28.7,27.2,29.82,NW,311,7.0,14.0,94,0.00,,,0.04,Wunderground v.1.15,2013-11-27 14:05:00,
2013-11-27 09:06:00,28.7,27.2,29.82,NNE,12,7.0,14.0,94,0.00,,,0.04,Wunderground v.1.15,2013-11-27 14:06:00,
2013-11-27 09:09:00,28.8,27.3,29.82,North,11,7.0,14.0,94,0.00,,,0.04,Wunderground v.1.15,2013-11-27 14:09:00,
2013-11-27 09:10:00,28.8,27.3,29.81,NNW,344,7.0,14.0,94,0.00,,,0.04,Wunderground v.1.15,2013-11-27 14:10:00,
2013-11-27 09:11:00,28.8,27.3,29.82,North,5,8.0,14.0,94,0.00,,,0.04,Wunderground v.1.15,2013-11-27 14:11:00,
2013-11-27 09:12:00,28.8,27.3,29.82,WNW,297,8.0,14.0,94,0.00,,,0.04,Wunderground v.1.15,2013-11-27 14:12:00,
2013-11-27 09:15:00,28.8,27.3,29.82,WNW,292,8.0,14.0,94,0.00,,,0.04,Wunderground v.1.15,2013-11-27 14:15:00,
2013-11-27 09:16:00,28.8,27.3,29.82,North,360,8.0,14.0,94,0.00,,,0.04,Wunderground v.1.15,2013-11-27 14:16:00,
2013-11-27 09:18:00,28.9,27.4,29.82,NW,316,7.0,14.0,94,0.00,,,0.04,Wunderground v.1.15,2013-11-27 14:18:00,
2013-11-27 09:21:00,28.8,27.3,29.82,WNW,301,6.0,14.0,94,0.00,,,0.04,Wunderground v.1.15,2013-11-27 14:21:00,
2013-11-27 09:22:00,28.9,27.4,29.82,NNE,29,6.0,14.0,94,0.00,,,0.04,Wunderground v.1.15,2013-11-27 14:22:00,
2013-11-27 09:23:00,28.9,27.4,29.82,NW,314,6.0,14.0,94,0.00,,,0.04,Wunderground v.1.15,2013-11-27 14:23:00,
2013-11-27 09:26:00,28.9,27.1,29.83,North,355,6.0,14.0,93,0.00,,,0.04,Wunderground v.1.15,2013-11-27 14:26:00,
2013-11-27 09:28:00,28.9,27.1,29.83,WNW,293,5.0,14.0,93,0.00,,,0.04,Wunderground v.1.15,2013-11-27 14:28:00,
2013-11-27 09:29:00,28.9,27.1,29.83,NW,306,6.0,14.0,93,0.00,,,0.04,Wunderground v.1.15,2013-11-27 14:29:00,
2013-11-27 09:33:00,28.9,27.1,29.83,WNW,300,7.0,14.0,93,0.00,,,0.04,Wunderground v.1.15,2013-11-27 14:33:00,
2013-11-27 09:36:00,29.0,27.0,29.83,WNW,302,7.0,14.0,92,0.00,,,0.04,Wunderground v.1.15,2013-11-27 14:36:00,
2013-11-27 09:37:00,29.0,27.0,29.82,WNW,286,7.0,14.0,92,0.00,,,0.04,Wunderground v.1.15,2013-11-27 14:37:00,
2013-11-27 09:39:00,29.2,26.9,29.83,NNW,328,9.0,23.0,91,0.00,,,0.04,Wunderground v.1.15,2013-11-27 14:39:00,
2013-11-27 09:40:00,29.2,26.6,29.83,NW,321,9.0,9.0,90,0.00,,,0.04,Wunderground v.1.15,2013-11-27 14:40:00,
2013-11-27 09:41:00,29.3,26.7,29.83,WNW,298,9.0,14.0,90,0.00,,,0.04,Wunderground v.1.15,2013-11-27 14:41:00,
2013-11-27 09:43:00,29.3,26.7,29.83,West,275,8.0,14.0,90,0.00,,,0.04,Wunderground v.1.15,2013-11-27 14:43:00,
2013-11-27 09:44:00,29.3,26.7,29.82,West,274,9.0,14.0,90,0.00,,,0.04,Wunderground v.1.15,2013-11-27 14:44:00,
2013-11-27 09:45:00,29.4,26.6,29.82,WNW,284,9.0,14.0,89,0.00,,,0.04,Wunderground v.1.15,2013-11-27 14:45:00,
2013-11-27 09:48:00,29.4,26.6,29.83,West,261,9.0,14.0,89,0.00,,,0.04,Wunderground v.1.15,2013-11-27 14:48:00,
2013-11-27 09:49:00,29.4,26.6,29.83,WSW,238,8.0,14.0,89,0.00,,,0.04,Wunderground v.1.15,2013-11-27 14:49:00,
2013-11-27 09:50:00,29.4,26.6,29.83,North,5,7.0,7.0,89,0.00,,,0.04,Wunderground v.1.15,2013-11-27 14:50:00,
2013-11-27 09:51:00,29.4,26.6,29.83,West,263,6.0,14.0,89,0.00,,,0.04,Wunderground v.1.15,2013-11-27 14:51:00,
2013-11-27 09:52:00,29.4,26.6,29.84,NNW,345,6.0,14.0,89,0.00,,,0.04,Wunderground v.1.15,2013-11-27 14:52:00,
2013-11-27 09:55:00,29.5,26.4,29.83,WNW,297,5.0,14.0,88,0.00,,,0.04,Wunderground v.1.15,2013-11-27 14:55:00,
2013-11-27 09:56:00,29.5,26.4,29.84,NW,307,5.0,14.0,88,0.00,,,0.04,Wunderground v.1.15,2013-11-27 14:56:00,
2013-11-27 09:58:00,29.6,26.5,29.84,WNW,298,5.0,14.0,88,0.00,,,0.04,Wunderground v.1.15,2013-11-27 14:58:00,
2013-11-27 09:59:00,29.6,26.2,29.84,West,269,6.0,16.0,87,0.00,,,0.04,Wunderground v.1.15,2013-11-27 14:59:00,
2013-11-27 10:00:00,29.6,26.2,29.84,WNW,282,6.0,14.0,87,0.00,,,0.04,Wunderground v.1.15,2013-11-27 15:00:00,
2013-11-27 10:01:00,29.6,26.2,29.85,SW,229,7.0,14.0,87,0.00,,,0.04,Wunderground v.1.15,2013-11-27 15:01:00,
2013-11-27 10:04:00,29.6,25.9,29.84,WNW,300,9.0,14.0,86,0.00,,,0.04,Wunderground v.1.15,2013-11-27 15:04:00,
2013-11-27 10:06:00,29.6,25.9,29.85,WNW,297,9.0,14.0,86,0.00,,,0.04,Wunderground v.1.15,2013-11-27 15:06:00,
2013-11-27 10:07:00,29.6,25.9,29.85,West,278,9.0,15.0,86,0.00,,,0.04,Wunderground v.1.15,2013-11-27 15:07:00,
2013-11-27 10:11:00,29.5,25.8,29.85,NNW,347,10.0,15.0,86,0.00,,,0.04,Wunderground v.1.15,2013-11-27 15:11:00,
2013-11-27 10:12:00,29.5,25.8,29.85,NNW,329,10.0,15.0,86,0.00,,,0.04,Wunderground v.1.15,2013-11-27 15:12:00,
2013-11-27 10:13:00,29.5,25.8,29.85,NE,42,11.0,15.0,86,0.00,,,0.04,Wunderground v.1.15,2013-11-27 15:13:00,
2013-11-27 10:14:00,29.4,25.7,29.84,NNW,344,10.0,15.0,86,0.00,,,0.04,Wunderground v.1.15,2013-11-27 15:14:00,
2013-11-27 10:15:00,29.4,25.7,29.85,WNW,294,10.0,15.0,86,0.00,,,0.04,Wunderground v.1.15,2013-11-27 15:15:00,
2013-11-27 10:19:00,29.4,25.7,29.85,West,273,9.0,15.0,86,0.00,,,0.04,Wunderground v.1.15,2013-11-27 15:19:00,
2013-11-27 10:20:00,29.4,25.7,29.85,West,281,8.0,8.0,86,0.00,,,0.04,Wunderground v.1.15,2013-11-27 15:20:00,
2013-11-27 10:21:00,29.4,26.0,29.86,WNW,287,8.0,9.0,87,0.00,,,0.04,Wunderground v.1.15,2013-11-27 15:21:00,
2013-11-27 10:23:00,29.4,25.7,29.86,WNW,301,7.0,14.0,86,0.00,,,0.04,Wunderground v.1.15,2013-11-27 15:23:00,
2013-11-27 10:25:00,29.4,25.4,29.86,North,355,7.0,14.0,85,0.00,,,0.04,Wunderground v.1.15,2013-11-27 15:25:00,
2013-11-27 10:27:00,29.4,25.7,29.86,SSW,209,7.0,14.0,86,0.00,,,0.04,Wunderground v.1.15,2013-11-27 15:27:00,
2013-11-27 10:28:00,29.4,25.7,29.86,North,5,6.0,14.0,86,0.00,,,0.04,Wunderground v.1.15,2013-11-27 15:28:00,
2013-11-27 10:29:00,29.4,25.7,29.86,NNW,329,6.0,14.0,86,0.00,,,0.04,Wunderground v.1.15,2013-11-27 15:29:00,
2013-11-27 10:32:00,29.4,25.7,29.86,NW,317,7.0,14.0,86,0.00,,,0.04,Wunderground v.1.15,2013-11-27 15:32:00,
2013-11-27 10:33:00,29.4,25.7,29.86,WNW,294,7.0,14.0,86,0.00,,,0.04,Wunderground v.1.15,2013-11-27 15:33:00,
2013-11-27 10:34:00,29.3,25.4,29.86,WNW,297,7.0,16.0,85,0.00,,,0.04,Wunderground v.1.15,2013-11-27 15:34:00,
2013-11-27 10:36:00,29.3,25.6,29.86,WNW,301,8.0,16.0,86,0.00,,,0.04,Wunderground v.1.15,2013-11-27 15:36:00,
2013-11-27 10:38:00,29.2,25.5,29.87,WSW,258,8.0,16.0,86,0.00,,,0.04,Wunderground v.1.15,2013-11-27 15:38:00,
2013-11-27 10:41:00,29.2,25.3,29.86,NNW,333,8.0,14.0,85,0.00,,,0.04,Wunderground v.1.15,2013-11-27 15:41:00,
2013-11-27 10:43:00,29.2,25.3,29.87,NNW,335,10.0,14.0,85,0.00,,,0.04,Wunderground v.1.15,2013-11-27 15:43:00,
2013-11-27 10:44:00,29.1,25.2,29.87,WNW,292,10.0,14.0,85,0.00,,,0.04,Wunderground v.1.15,2013-11-27 15:44:00,
2013-11-27 10:46:00,29.1,25.2,29.87,WNW,296,10.0,14.0,85,0.00,,,0.04,Wunderground v.1.15,2013-11-27 15:46:00,
2013-11-27 10:47:00,29.1,25.2,29.87,WNW,284,9.0,14.0,85,0.00,,,0.04,Wunderground v.1.15,2013-11-27 15:47:00,
2013-11-27 10:49:00,29.1,25.4,29.87,WNW,284,9.0,14.0,86,0.00,,,0.04,Wunderground v.1.15,2013-11-27 15:49:00,
2013-11-27 10:50:00,29.1,25.4,29.88,SSW,197,9.0,9.0,86,0.00,,,0.04,Wunderground v.1.15,2013-11-27 15:50:00,
2013-11-27 10:52:00,29.0,25.1,29.87,NW,311,7.0,14.0,85,0.00,,,0.04,Wunderground v.1.15,2013-11-27 15:52:00,
2013-11-27 10:53:00,29.0,25.1,29.88,West,269,6.0,14.0,85,0.00,,,0.04,Wunderground v.1.15,2013-11-27 15:53:00,
2013-11-27 10:55:00,29.1,25.2,29.88,WNW,296,4.0,14.0,85,0.00,,,0.04,Wunderground v.1.15,2013-11-27 15:55:00,
2013-11-27 10:56:00,29.1,25.2,29.88,NNE,19,4.0,14.0,85,0.00,,,0.04,Wunderground v.1.15,2013-11-27 15:56:00,
2013-11-27 10:57:00,29.1,25.2,29.87,North,355,5.0,14.0,85,0.00,,,0.04,Wunderground v.1.15,2013-11-27 15:57:00,
2013-11-27 10:58:00,29.1,25.2,29.88,NNW,342,5.0,14.0,85,0.00,,,0.04,Wunderground v.1.15,2013-11-27 15:58:00,
2013-11-27 11:01:00,29.2,25.3,29.88,NW,319,5.0,14.0,85,0.00,,,0.04,Wunderground v.1.15,2013-11-27 16:01:00,
2013-11-27 11:02:00,29.2,25.0,29.88,NNE,20,6.0,16.0,84,0.00,,,0.04,Wunderground v.1.15,2013-11-27 16:02:00,
2013-11-27 11:03:00,29.2,25.0,29.88,NW,322,7.0,16.0,84,0.00,,,0.04,Wunderground v.1.15,2013-11-27 16:03:00,
2013-11-27 11:04:00,29.2,25.0,29.88,West,281,7.0,16.0,84,0.00,,,0.04,Wunderground v.1.15,2013-11-27 16:04:00,
2013-11-27 11:05:00,29.2,25.0,29.88,North,350,7.0,16.0,84,0.00,,,0.04,Wunderground v.1.15,2013-11-27 16:05:00,
2013-11-27 11:10:00,29.4,25.2,29.88,NW,304,9.0,14.0,84,0.00,,,0.04,Wunderground v.1.15,2013-11-27 16:10:00,
2013-11-27 11:12:00,29.5,25.3,29.88,NNW,333,9.0,14.0,84,0.00,,,0.04,Wunderground v.1.15,2013-11-27 16:12:00,
2013-11-27 11:13:00,29.5,25.3,29.88,NNW,331,8.0,14.0,84,0.00,,,0.04,Wunderground v.1.15,2013-11-27 16:13:00,
2013-11-27 11:14:00,29.6,25.4,29.88,NW,315,8.0,14.0,84,0.00,,,0.04,Wunderground v.1.15,2013-11-27 16:14:00,
2013-11-27 11:17:00,29.5,25.0,29.88,NW,321,8.0,14.0,83,0.00,,,0.04,Wunderground v.1.15,2013-11-27 16:17:00,
2013-11-27 11:18:00,29.4,24.9,29.88,WNW,298,8.0,14.0,83,0.00,,,0.04,Wunderground v.1.15,2013-11-27 16:18:00,
2013-11-27 11:21:00,29.4,24.9,29.89,SW,232,7.0,14.0,83,0.00,,,0.04,Wunderground v.1.15,2013-11-27 16:21:00,
2013-11-27 11:22:00,29.3,24.5,29.88,WNW,297,7.0,14.0,82,0.00,,,0.04,Wunderground v.1.15,2013-11-27 16:22:00,
2013-11-27 11:23:00,29.3,24.8,29.88,WNW,284,8.0,18.0,83,0.00,,,0.04,Wunderground v.1.15,2013-11-27 16:23:00,
2013-11-27 11:25:00,29.3,24.5,29.88,WNW,300,9.0,18.0,82,0.00,,,0.04,Wunderground v.1.15,2013-11-27 16:25:00,
2013-11-27 11:26:00,29.3,24.5,29.88,NW,313,10.0,18.0,82,0.00,,,0.04,Wunderground v.1.15,2013-11-27 16:26:00,
2013-11-27 11:30:00,29.3,24.5,29.88,NW,311,10.0,10.0,82,0.00,,,0.04,Wunderground v.1.15,2013-11-27 16:30:00,
2013-11-27 11:32:00,29.3,24.8,29.88,WNW,297,9.0,14.0,83,0.00,,,0.04,Wunderground v.1.15,2013-11-27 16:32:00,
2013-11-27 11:33:00,29.3,24.5,29.88,NNW,336,10.0,14.0,82,0.00,,,0.04,Wunderground v.1.15,2013-11-27 16:33:00,
2013-11-27 11:37:00,29.3,24.2,29.88,NNW,347,9.0,15.0,81,0.00,,,0.04,Wunderground v.1.15,2013-11-27 16:37:00,
2013-11-27 11:38:00,29.4,24.3,29.88,NNE,26,9.0,15.0,81,0.00,,,0.04,Wunderground v.1.15,2013-11-27 16:38:00,
2013-11-27 11:40:00,29.3,24.2,29.88,WNW,288,10.0,10.0,81,0.00,,,0.04,Wunderground v.1.15,2013-11-27 16:40:00,
2013-11-27 11:43:00,29.4,24.3,29.88,NNW,345,10.0,14.0,81,0.00,,,0.04,Wunderground v.1.15,2013-11-27 16:43:00,
2013-11-27 11:44:00,29.4,24.3,29.89,WSW,250,9.0,14.0,81,0.00,,,0.04,Wunderground v.1.15,2013-11-27 16:44:00,
2013-11-27 11:45:00,29.4,24.3,29.89,West,273,9.0,14.0,81,0.00,,,0.04,Wunderground v.1.15,2013-11-27 16:45:00,
2013-11-27 11:46:00,29.4,24.3,29.89,NW,317,9.0,14.0,81,0.00,,,0.04,Wunderground v.1.15,2013-11-27 16:46:00,
2013-11-27 11:50:00,29.4,24.3,29.89,West,281,9.0,14.0,81,0.00,,,0.04,Wunderground v.1.15,2013-11-27 16:50:00,
2013-11-27 11:51:00,29.4,24.0,29.89,WNW,288,9.0,14.0,80,0.00,,,0.04,Wunderground v.1.15,2013-11-27 16:51:00,
2013-11-27 11:53:00,29.4,24.0,29.89,WSW,258,9.0,14.0,80,0.00,,,0.04,Wunderground v.1.15,2013-11-27 16:53:00,
2013-11-27 11:57:00,29.5,24.1,29.89,WNW,300,8.0,14.0,80,0.00,,,0.04,Wunderground v.1.15,2013-11-27 16:57:00,
2013-11-27 11:58:00,29.5,24.1,29.89,NW,321,8.0,14.0,80,0.00,,,0.04,Wunderground v.1.15,2013-11-27 16:58:00,
2013-11-27 12:01:00,29.5,24.1,29.89,NNE,31,7.0,16.0,80,0.00,,,0.04,Wunderground v.1.15,2013-11-27 17:01:00,
2013-11-27 12:02:00,29.4,24.0,29.89,WNW,301,8.0,16.0,80,0.00,,,0.04,Wunderground v.1.15,2013-11-27 17:02:00,
2013-11-27 12:05:00,29.4,24.0,29.89,NW,310,7.0,16.0,80,0.00,,,0.04,Wunderground v.1.15,2013-11-27 17:05:00,
2013-11-27 12:08:00,29.5,24.1,29.89,NW,325,6.0,16.0,80,0.00,,,0.04,Wunderground v.1.15,2013-11-27 17:08:00,
2013-11-27 12:09:00,29.6,24.2,29.89,NW,304,6.0,16.0,80,0.00,,,0.04,Wunderground v.1.15,2013-11-27 17:09:00,
2013-11-27 12:10:00,29.6,24.2,29.89,West,275,7.0,14.0,80,0.00,,,0.04,Wunderground v.1.15,2013-11-27 17:10:00,
2013-11-27 12:11:00,29.6,24.2,29.89,NNW,344,7.0,14.0,80,0.00,,,0.04,Wunderground v.1.15,2013-11-27 17:11:00,
2013-11-27 12:13:00,29.6,23.6,29.89,North,360,8.0,19.0,78,0.00,,,0.04,Wunderground v.1.15,2013-11-27 17:13:00,
2013-11-27 12:15:00,29.5,23.8,29.90,East,94,10.0,19.0,79,0.00,,,0.04,Wunderground v.1.15,2013-11-27 17:15:00,
2013-11-27 12:16:00,29.5,23.8,29.89,SW,230,10.0,19.0,79,0.00,,,0.04,Wunderground v.1.15,2013-11-27 17:16:00,
2013-11-27 12:17:00,29.5,23.8,29.89,NW,306,10.0,19.0,79,0.00,,,0.04,Wunderground v.1.15,2013-11-27 17:17:00,
2013-11-27 12:19:00,29.5,23.2,29.89,North,360,11.0,19.0,77,0.00,,,0.04,Wunderground v.1.15,2013-11-27 17:19:00,
2013-11-27 12:22:00,29.7,24.0,29.89,NNE,15,11.0,16.0,79,0.00,,,0.04,Wunderground v.1.15,2013-11-27 17:22:00,
2013-11-27 12:23:00,29.7,23.7,29.89,NW,317,10.0,16.0,78,0.00,,,0.04,Wunderground v.1.15,2013-11-27 17:23:00,
2013-11-27 12:25:00,29.7,23.4,29.89,NW,309,9.0,16.0,77,0.00,,,0.04,Wunderground v.1.15,2013-11-27 17:25:00,
2013-11-27 12:26:00,29.7,23.7,29.89,ENE,77,9.0,16.0,78,0.00,,,0.04,Wunderground v.1.15,2013-11-27 17:26:00,
2013-11-27 12:29:00,29.9,24.2,29.90,NW,311,8.0,16.0,79,0.00,,,0.04,Wunderground v.1.15,2013-11-27 17:29:00,
2013-11-27 12:30:00,30.0,24.0,29.90,NNW,346,8.0,21.0,78,0.00,,,0.04,Wunderground v.1.15,2013-11-27 17:30:00,
2013-11-27 12:31:00,29.9,23.6,29.90,NNW,339,8.0,21.0,77,0.00,,,0.04,Wunderground v.1.15,2013-11-27 17:31:00,
2013-11-27 12:32:00,29.9,23.3,29.90,North,349,9.0,21.0,76,0.00,,,0.04,Wunderground v.1.15,2013-11-27 17:32:00,
2013-11-27 12:35:00,29.9,23.6,29.90,West,260,8.0,21.0,77,0.00,,,0.04,Wunderground v.1.15,2013-11-27 17:35:00,
2013-11-27 12:36:00,30.0,23.7,29.90,NNW,335,8.0,21.0,77,0.00,,,0.04,Wunderground v.1.15,2013-11-27 17:36:00,
2013-11-27 12:37:00,30.0,23.4,29.90,NW,306,8.0,21.0,76,0.00,,,0.04,Wunderground v.1.15,2013-11-27 17:37:00,
2013-11-27 12:41:00,30.0,23.4,29.90,WNW,286,9.0,15.0,76,0.00,,,0.04,Wunderground v.1.15,2013-11-27 17:41:00,
2013-11-27 12:42:00,30.0,23.4,29.90,WNW,296,9.0,15.0,76,0.00,,,0.04,Wunderground v.1.15,2013-11-27 17:42:00,
2013-11-27 12:43:00,29.9,23.3,29.91,WNW,294,9.0,15.0,76,0.00,,,0.04,Wunderground v.1.15,2013-11-27 17:43:00,
2013-11-27 12:47:00,30.0,23.4,29.91,NW,304,10.0,15.0,76,0.00,,,0.04,Wunderground v.1.15,2013-11-27 17:47:00,
2013-11-27 12:48:00,30.0,23.4,29.91,WNW,282,9.0,15.0,76,0.00,,,0.04,Wunderground v.1.15,2013-11-27 17:48:00,
2013-11-27 12:51:00,29.9,23.3,29.90,North,355,9.0,14.0,76,0.00,,,0.04,Wunderground v.1.15,2013-11-27 17:51:00,
2013-11-27 12:52:00,29.8,23.2,29.90,North,355,9.0,14.0,76,0.00,,,0.04,Wunderground v.1.15,2013-11-27 17:52:00,
2013-11-27 12:53:00,29.7,23.1,29.91,NNW,344,9.0,14.0,76,0.00,,,0.04,Wunderground v.1.15,2013-11-27 17:53:00,
2013-11-27 12:54:00,29.7,23.4,29.91,North,349,9.0,14.0,77,0.00,,,0.04,Wunderground v.1.15,2013-11-27 17:54:00,
2013-11-27 12:56:00,29.8,23.5,29.91,NNW,341,9.0,14.0,77,0.00,,,0.04,Wunderground v.1.15,2013-11-27 17:56:00,
2013-11-27 12:58:00,29.8,23.5,29.92,NW,305,8.0,20.0,77,0.00,,,0.04,Wunderground v.1.15,2013-11-27 17:58:00,
2013-11-27 13:00:00,29.7,23.1,29.91,NNW,342,9.0,14.0,76,0.00,,,0.04,Wunderground v.1.15,2013-11-27 18:00:00,
2013-11-27 13:02:00,29.6,23.0,29.91,WNW,298,10.0,24.0,76,0.00,,,0.04,Wunderground v.1.15,2013-11-27 18:02:00,
2013-11-27 13:03:00,29.6,23.0,29.91,North,351,10.0,24.0,76,0.00,,,0.04,Wunderground v.1.15,2013-11-27 18:03:00,
2013-11-27 13:04:00,29.7,23.1,29.92,North,5,10.0,24.0,76,0.00,,,0.04,Wunderground v.1.15,2013-11-27 18:04:00,
2013-11-27 13:05:00,29.7,23.4,29.92,WNW,301,10.0,24.0,77,0.00,,,0.04,Wunderground v.1.15,2013-11-27 18:05:00,
2013-11-27 13:06:00,29.7,23.1,29.92,East,83,10.0,24.0,76,0.00,,,0.04,Wunderground v.1.15,2013-11-27 18:06:00,
2013-11-27 13:09:00,29.8,22.8,29.92,NW,313,10.0,24.0,75,0.00,,,0.04,Wunderground v.1.15,2013-11-27 18:09:00,
2013-11-27 13:11:00,29.8,22.2,29.92,NNE,16,10.0,14.0,73,0.00,,,0.04,Wunderground v.1.15,2013-11-27 18:11:00,
2013-11-27 13:13:00,29.9,22.3,29.92,NW,325,9.0,14.0,73,0.00,,,0.04,Wunderground v.1.15,2013-11-27 18:13:00,
2013-11-27 13:14:00,30.0,22.4,29.92,NW,304,8.0,14.0,73,0.00,,,0.04,Wunderground v.1.15,2013-11-27 18:14:00,
2013-11-27 13:15:00,30.0,22.1,29.93,NW,306,9.0,14.0,72,0.00,,,0.04,Wunderground v.1.15,2013-11-27 18:15:00,
2013-11-27 13:16:00,30.1,22.2,29.92,NNW,343,9.0,14.0,72,0.00,,,0.04,Wunderground v.1.15,2013-11-27 18:16:00,
2013-11-27 13:17:00,30.2,22.3,29.92,NNW,336,9.0,14.0,72,0.00,,,0.04,Wunderground v.1.15,2013-11-27 18:17:00,
2013-11-27 13:20:00,30.3,21.7,29.92,NW,319,8.0,8.0,70,0.00,,,0.04,Wunderground v.1.15,2013-11-27 18:20:00,
2013-11-27 13:22:00,30.4,22.4,29.92,NW,320,7.0,14.0,72,0.00,,,0.04,Wunderground v.1.15,2013-11-27 18:22:00,
2013-11-27 13:23:00,30.5,22.2,29.92,West,278,7.0,14.0,71,0.00,,,0.04,Wunderground v.1.15,2013-11-27 18:23:00,
2013-11-27 13:25:00,30.6,22.3,29.92,NE,35,6.0,14.0,71,0.00,,,0.04,Wunderground v.1.15,2013-11-27 18:25:00,
2013-11-27 13:28:00,30.6,21.6,29.92,WNW,283,7.0,14.0,69,0.00,,,0.04,Wunderground v.1.15,2013-11-27 18:28:00,
2013-11-27 13:29:00,30.6,22.6,29.92,North,360,7.0,19.0,72,0.00,,,0.04,Wunderground v.1.15,2013-11-27 18:29:00,
2013-11-27 13:30:00,30.7,22.7,29.93,NW,325,8.0,23.0,72,0.00,,,0.04,Wunderground v.1.15,2013-11-27 18:30:00,
2013-11-27 13:33:00,30.6,22.3,29.92,WNW,285,11.0,23.0,71,0.00,,,0.04,Wunderground v.1.15,2013-11-27 18:33:00,
2013-11-27 13:36:00,30.5,22.9,29.92,NNW,341,13.0,23.0,73,0.00,,,0.04,Wunderground v.1.15,2013-11-27 18:36:00,
2013-11-27 13:37:00,30.6,23.3,29.93,North,11,13.0,23.0,74,0.00,,,0.04,Wunderground v.1.15,2013-11-27 18:37:00,
2013-11-27 13:38:00,30.8,23.2,29.93,NNW,345,13.0,23.0,73,0.00,,,0.04,Wunderground v.1.15,2013-11-27 18:38:00,
2013-11-27 13:41:00,31.0,23.0,29.93,NNW,344,13.0,14.0,72,0.00,,,0.04,Wunderground v.1.15,2013-11-27 18:41:00,
2013-11-27 13:43:00,31.0,23.4,29.93,NW,318,12.0,14.0,73,0.00,,,0.04,Wunderground v.1.15,2013-11-27 18:43:00,
2013-11-27 13:44:00,31.1,23.5,29.93,NW,315,12.0,14.0,73,0.00,,,0.04,Wunderground v.1.15,2013-11-27 18:44:00,
2013-11-27 13:45:00,31.2,23.5,29.93,NW,304,11.0,14.0,73,0.00,,,0.04,Wunderground v.1.15,2013-11-27 18:45:00,
2013-11-27 13:46:00,31.3,23.6,29.93,North,355,11.0,14.0,73,0.00,,,0.04,Wunderground v.1.15,2013-11-27 18:46:00,
2013-11-27 13:50:00,31.3,24.0,29.93,North,355,12.0,16.0,74,0.00,,,0.04,Wunderground v.1.15,2013-11-27 18:50:00,
2013-11-27 13:51:00,31.3,23.6,29.93,North,360,11.0,16.0,73,0.00,,,0.04,Wunderground v.1.15,2013-11-27 18:51:00,
2013-11-27 13:52:00,31.3,23.6,29.93,NW,312,11.0,16.0,73,0.00,,,0.04,Wunderground v.1.15,2013-11-27 18:52:00,
2013-11-27 13:56:00,31.1,23.8,29.93,NNW,327,13.0,16.0,74,0.00,,,0.04,Wunderground v.1.15,2013-11-27 18:56:00,
2013-11-27 13:57:00,31.0,23.4,29.93,NW,321,13.0,16.0,73,0.00,,,0.04,Wunderground v.1.15,2013-11-27 18:57:00,
2013-11-27 13:59:00,30.9,23.9,29.93,NW,311,12.0,16.0,75,0.00,,,0.04,Wunderground v.1.15,2013-11-27 18:59:00,
2013-11-27 14:00:00,31.0,24.0,29.93,NNW,348,12.0,14.0,75,0.00,,,0.04,Wunderground v.1.15,2013-11-27 19:00:00,
2013-11-27 14:02:00,30.9,23.6,29.93,NNW,339,12.0,14.0,74,0.00,,,0.04,Wunderground v.1.15,2013-11-27 19:02:00,
2013-11-27 14:04:00,30.8,23.8,29.94,NNW,328,12.0,14.0,75,0.00,,,0.04,Wunderground v.1.15,2013-11-27 19:04:00,
2013-11-27 14:05:00,30.8,23.8,29.93,NW,312,12.0,15.0,75,0.00,,,0.04,Wunderground v.1.15,2013-11-27 19:05:00,
2013-11-27 14:08:00,30.7,23.7,29.93,NW,311,11.0,16.0,75,0.00,,,0.04,Wunderground v.1.15,2013-11-27 19:08:00,
2013-11-27 14:09:00,30.6,23.6,29.93,NNW,344,12.0,16.0,75,0.00,,,0.04,Wunderground v.1.15,2013-11-27 19:09:00,
2013-11-27 14:10:00,30.4,23.1,29.94,North,350,12.0,14.0,74,0.00,,,0.04,Wunderground v.1.15,2013-11-27 19:10:00,
2013-11-27 14:13:00,30.3,22.7,29.94,NW,313,13.0,18.0,73,0.00,,,0.04,Wunderground v.1.15,2013-11-27 19:13:00,
2013-11-27 14:14:00,30.2,22.6,29.94,NNW,327,13.0,21.0,73,0.00,,,0.04,Wunderground v.1.15,2013-11-27 19:14:00,
2013-11-27 14:16:00,30.1,22.8,29.94,NNW,333,14.0,22.0,74,0.00,,,0.04,Wunderground v.1.15,2013-11-27 19:16:00,
2013-11-27 14:18:00,30.0,22.7,29.95,NW,317,15.0,22.0,74,0.00,,,0.04,Wunderground v.1.15,2013-11-27 19:18:00,
2013-11-27 14:19:00,29.9,22.6,29.95,NNW,333,15.0,22.0,74,0.00,,,0.04,Wunderground v.1.15,2013-11-27 19:19:00,
2013-11-27 14:20:00,29.9,22.6,29.95,NNW,346,16.0,20.0,74,0.00,,,0.04,Wunderground v.1.15,2013-11-27 19:20:00,
2013-11-27 14:21:00,29.9,22.6,29.96,NNE,19,17.0,20.0,74,0.00,,,0.04,Wunderground v.1.15,2013-11-27 19:21:00,
2013-11-27 14:25:00,29.8,22.5,29.97,NNW,340,18.0,20.0,74,0.00,,,0.05,Wunderground v.1.15,2013-11-27 19:25:00,
2013-11-27 14:26:00,29.7,22.4,29.96,NW,319,18.0,23.0,74,0.00,,,0.05,Wunderground v.1.15,2013-11-27 19:26:00,
2013-11-27 14:28:00,29.6,22.3,29.97,NNW,329,19.0,23.0,74,0.00,,,0.05,Wunderground v.1.15,2013-11-27 19:28:00,
2013-11-27 14:29:00,29.6,22.3,29.97,North,351,19.0,23.0,74,0.00,,,0.05,Wunderground v.1.15,2013-11-27 19:29:00,
2013-11-27 14:30:00,29.5,22.6,29.97,NNE,17,18.0,18.0,75,0.00,,,0.05,Wunderground v.1.15,2013-11-27 19:30:00,
2013-11-27 14:32:00,29.5,22.6,29.98,NW,322,17.0,20.0,75,0.00,,,0.05,Wunderground v.1.15,2013-11-27 19:32:00,
2013-11-27 14:34:00,29.4,22.5,29.97,North,360,18.0,28.0,75,0.00,,,0.05,Wunderground v.1.15,2013-11-27 19:34:00,
2013-11-27 14:35:00,29.3,22.4,29.98,WNW,302,18.0,28.0,75,0.00,,,0.05,Wunderground v.1.15,2013-11-27 19:35:00,
2013-11-27 14:37:00,29.2,21.9,29.99,NNE,16,18.0,28.0,74,0.00,,,0.05,Wunderground v.1.15,2013-11-27 19:37:00,
2013-11-27 14:39:00,29.1,21.8,29.98,North,10,17.0,28.0,74,0.00,,,0.05,Wunderground v.1.15,2013-11-27 19:39:00,
2013-11-27 14:42:00,29.3,22.4,29.99,NW,306,17.0,17.0,75,0.00,,,0.05,Wunderground v.1.15,2013-11-27 19:42:00,
2013-11-27 14:43:00,29.3,22.7,29.99,NW,317,16.0,17.0,76,0.00,,,0.05,Wunderground v.1.15,2013-11-27 19:43:00,
2013-11-27 14:44:00,29.4,22.5,29.99,WNW,292,15.0,17.0,75,0.00,,,0.05,Wunderground v.1.15,2013-11-27 19:44:00,
2013-11-27 14:45:00,29.4,22.1,29.99,NNW,342,15.0,17.0,74,0.00,,,0.05,Wunderground v.1.15,2013-11-27 19:45:00,
2013-11-27 14:47:00,29.5,21.9,29.99,NW,315,13.0,17.0,73,0.00,,,0.05,Wunderground v.1.15,2013-11-27 19:47:00,
2013-11-27 14:48:00,29.6,22.0,29.99,NNW,346,12.0,17.0,73,0.00,,,0.05,Wunderground v.1.15,2013-11-27 19:48:00,
2013-11-27 14:49:00,29.7,22.1,29.99,NW,309,11.0,17.0,73,0.00,,,0.05,Wunderground v.1.15,2013-11-27 19:49:00,
2013-11-27 14:51:00,29.9,22.0,29.99,NW,324,10.0,14.0,72,0.00,,,0.05,Wunderground v.1.15,2013-11-27 19:51:00,
2013-11-27 15:27:00,28.0,20.8,30.02,NNW,339,14.0,31.0,74,0.00,,,0.05,Wunderground v.1.15,2013-11-27 20:27:00,
2013-11-27 15:28:00,28.0,20.8,30.03,NW,311,15.0,31.0,74,0.00,,,0.05,Wunderground v.1.15,2013-11-27 20:28:00,
2013-11-27 15:29:00,28.0,20.8,30.03,NW,319,15.0,31.0,74,0.00,,,0.05,Wunderground v.1.15,2013-11-27 20:29:00,
2013-11-27 15:30:00,28.0,20.8,30.03,NW,306,15.0,15.0,74,0.00,,,0.05,Wunderground v.1.15,2013-11-27 20:30:00,
2013-11-27 15:33:00,28.1,20.9,30.03,NNW,337,14.0,15.0,74,0.00,,,0.05,Wunderground v.1.15,2013-11-27 20:33:00,
2013-11-27 15:35:00,28.2,21.0,30.04,North,9,12.0,19.0,74,0.00,,,0.05,Wunderground v.1.15,2013-11-27 20:35:00,
2013-11-27 15:36:00,28.2,20.7,30.04,NNW,344,12.0,19.0,73,0.00,,,0.05,Wunderground v.1.15,2013-11-27 20:36:00,
2013-11-27 15:37:00,28.1,20.6,30.03,North,355,12.0,19.0,73,0.00,,,0.05,Wunderground v.1.15,2013-11-27 20:37:00,
2013-11-27 15:38:00,28.1,20.6,30.04,NW,317,12.0,19.0,73,0.00,,,0.05,Wunderground v.1.15,2013-11-27 20:38:00,
2013-11-27 15:41:00,28.0,19.8,30.04,NNW,335,13.0,22.0,71,0.00,,,0.05,Wunderground v.1.15,2013-11-27 20:41:00,
2013-11-27 15:43:00,27.8,19.6,30.04,North,5,14.0,22.0,71,0.00,,,0.05,Wunderground v.1.15,2013-11-27 20:43:00,
2013-11-27 15:44:00,27.7,19.2,30.04,NW,323,15.0,22.0,70,0.00,,,0.05,Wunderground v.1.15,2013-11-27 20:44:00,
2013-11-27 15:46:00,27.6,19.1,30.05,NNW,343,17.0,22.0,70,0.00,,,0.05,Wunderground v.1.15,2013-11-27 20:46:00,
2013-11-27 15:49:00,27.6,19.4,30.06,WNW,283,15.0,22.0,71,0.00,,,0.05,Wunderground v.1.15,2013-11-27 20:49:00,
2013-11-27 15:50:00,27.7,19.2,30.06,NW,307,15.0,15.0,70,0.00,,,0.05,Wunderground v.1.15,2013-11-27 20:50:00,
2013-11-27 15:51:00,27.7,18.5,30.05,NW,313,14.0,15.0,68,0.00,,,0.05,Wunderground v.1.15,2013-11-27 20:51:00,
2013-11-27 15:54:00,27.7,18.2,30.05,NW,318,14.0,27.0,67,0.00,,,0.05,Wunderground v.1.15,2013-11-27 20:54:00,
2013-11-27 15:57:00,27.6,17.7,30.05,WNW,290,14.0,28.0,66,0.00,,,0.05,Wunderground v.1.15,2013-11-27 20:57:00,
2013-11-27 15:58:00,27.6,18.1,30.05,North,355,16.0,28.0,67,0.00,,,0.05,Wunderground v.1.15,2013-11-27 20:58:00,
2013-11-27 15:59:00,27.6,18.1,30.05,NW,320,17.0,28.0,67,0.00,,,0.05,Wunderground v.1.15,2013-11-27 20:59:00,
2013-11-27 16:00:00,27.6,18.4,30.05,NW,313,18.0,27.0,68,0.00,,,0.05,Wunderground v.1.15,2013-11-27 21:00:00,
2013-11-27 16:01:00,27.6,18.1,30.05,NW,316,19.0,27.0,67,0.00,,,0.05,Wunderground v.1.15,2013-11-27 21:01:00,
2013-11-27 16:04:00,27.6,18.4,30.05,NW,307,19.0,27.0,68,0.00,,,0.05,Wunderground v.1.15,2013-11-27 21:04:00,
2013-11-27 16:05:00,27.6,18.4,30.06,WNW,299,19.0,27.0,68,0.00,,,0.05,Wunderground v.1.15,2013-11-27 21:05:00,
2013-11-27 16:06:00,27.6,18.4,30.06,NW,311,18.0,27.0,68,0.00,,,0.05,Wunderground v.1.15,2013-11-27 21:06:00,
2013-11-27 16:10:00,27.4,17.9,30.06,NW,309,17.0,27.0,67,0.00,,,0.05,Wunderground v.1.15,2013-11-27 21:10:00,
2013-11-27 16:12:00,27.2,18.4,30.07,NW,323,16.0,27.0,69,0.00,,,0.05,Wunderground v.1.15,2013-11-27 21:12:00,
2013-11-27 16:13:00,27.2,18.4,30.07,NW,313,17.0,27.0,69,0.00,,,0.05,Wunderground v.1.15,2013-11-27 21:13:00,
2013-11-27 16:14:00,27.1,18.3,30.07,NW,319,17.0,27.0,69,0.00,,,0.05,Wunderground v.1.15,2013-11-27 21:14:00,
2013-11-27 16:17:00,27.1,18.3,30.07,NW,321,19.0,27.0,69,0.00,,,0.05,Wunderground v.1.15,2013-11-27 21:17:00,
2013-11-27 16:18:00,27.1,18.3,30.07,NW,326,19.0,27.0,69,0.00,,,0.05,Wunderground v.1.15,2013-11-27 21:18:00,
2013-11-27 16:20:00,27.2,18.4,30.07,NW,317,18.0,18.0,69,0.00,,,0.05,Wunderground v.1.15,2013-11-27 21:20:00,
2013-11-27 16:21:00,27.2,18.4,30.07,NNW,341,18.0,27.0,69,0.00,,,0.05,Wunderground v.1.15,2013-11-27 21:21:00,
2013-11-27 16:25:00,27.1,18.3,30.08,NW,326,18.0,27.0,69,0.00,,,0.05,Wunderground v.1.15,2013-11-27 21:25:00,
2013-11-27 16:26:00,27.1,18.3,30.08,NNW,347,17.0,27.0,69,0.00,,,0.05,Wunderground v.1.15,2013-11-27 21:26:00,
2013-11-27 16:29:00,27.0,18.5,30.09,NE,34,18.0,27.0,70,0.00,,,0.05,Wunderground v.1.15,2013-11-27 21:29:00,
2013-11-27 16:30:00,26.9,17.7,30.09,NW,308,18.0,18.0,68,0.00,,,0.05,Wunderground v.1.15,2013-11-27 21:30:00,
2013-11-27 16:31:00,26.9,18.1,30.10,NW,309,18.0,18.0,69,0.00,,,0.05,Wunderground v.1.15,2013-11-27 21:31:00,
2013-11-27 16:32:00,26.9,17.7,30.10,North,355,17.0,19.0,68,0.00,,,0.05,Wunderground v.1.15,2013-11-27 21:32:00,
2013-11-27 16:35:00,26.9,18.1,30.10,NNW,335,17.0,19.0,69,0.00,,,0.05,Wunderground v.1.15,2013-11-27 21:35:00,
2013-11-27 16:37:00,26.9,18.1,30.11,NW,304,16.0,19.0,69,0.00,,,0.05,Wunderground v.1.15,2013-11-27 21:37:00,
2013-11-27 16:38:00,26.8,18.0,30.11,WNW,284,15.0,19.0,69,0.00,,,0.05,Wunderground v.1.15,2013-11-27 21:38:00,
2013-11-27 16:40:00,26.8,18.0,30.11,NW,324,13.0,16.0,69,0.00,,,0.05,Wunderground v.1.15,2013-11-27 21:40:00,
2013-11-27 16:41:00,26.8,18.0,30.11,NNW,334,12.0,16.0,69,0.00,,,0.05,Wunderground v.1.15,2013-11-27 21:41:00,
2013-11-27 16:43:00,26.7,17.9,30.11,NNW,332,11.0,16.0,69,0.00,,,0.05,Wunderground v.1.15,2013-11-27 21:43:00,
2013-11-27 16:44:00,26.7,17.6,30.11,North,350,11.0,16.0,68,0.00,,,0.05,Wunderground v.1.15,2013-11-27 21:44:00,
2013-11-27 16:47:00,26.7,17.9,30.11,North,360,11.0,16.0,69,0.00,,,0.05,Wunderground v.1.15,2013-11-27 21:47:00,
2013-11-27 16:49:00,26.7,17.9,30.11,North,5,12.0,16.0,69,0.00,,,0.05,Wunderground v.1.15,2013-11-27 21:49:00,
2013-11-27 16:50:00,26.7,17.9,30.11,NNW,329,12.0,12.0,69,0.00,,,0.05,Wunderground v.1.15,2013-11-27 21:50:00,
2013-11-27 16:51:00,26.6,17.8,30.11,NW,311,12.0,14.0,69,0.00,,,0.05,Wunderground v.1.15,2013-11-27 21:51:00,
2013-11-27 16:52:00,26.6,17.8,30.11,West,271,12.0,14.0,69,0.00,,,0.05,Wunderground v.1.15,2013-11-27 21:52:00,
2013-11-27 16:55:00,26.6,17.8,30.11,NNW,336,11.0,16.0,69,0.00,,,0.05,Wunderground v.1.15,2013-11-27 21:55:00,
2013-11-27 16:56:00,26.6,17.8,30.11,NW,320,11.0,16.0,69,0.00,,,0.05,Wunderground v.1.15,2013-11-27 21:56:00,
2013-11-27 16:57:00,26.5,18.0,30.11,NW,312,11.0,16.0,70,0.00,,,0.05,Wunderground v.1.15,2013-11-27 21:57:00,
2013-11-27 16:58:00,26.5,18.0,30.11,NW,326,12.0,16.0,70,0.00,,,0.05,Wunderground v.1.15,2013-11-27 21:58:00,
2013-11-27 17:00:00,26.5,18.4,30.12,WNW,302,12.0,12.0,71,0.00,,,0.05,Wunderground v.1.15,2013-11-27 22:00:00,
2013-11-27 17:02:00,26.4,17.9,30.12,West,267,12.0,14.0,70,0.00,,,0.05,Wunderground v.1.15,2013-11-27 22:02:00,
2013-11-27 17:04:00,26.5,17.4,30.12,NNW,339,13.0,20.0,68,0.00,,,0.05,Wunderground v.1.15,2013-11-27 22:04:00,
2013-11-27 17:05:00,26.5,17.7,30.12,North,350,12.0,20.0,69,0.00,,,0.05,Wunderground v.1.15,2013-11-27 22:05:00,
2013-11-27 17:06:00,26.4,17.6,30.12,NW,318,12.0,20.0,69,0.00,,,0.05,Wunderground v.1.15,2013-11-27 22:06:00,
2013-11-27 17:07:00,26.4,17.9,30.12,NW,308,12.0,20.0,70,0.00,,,0.05,Wunderground v.1.15,2013-11-27 22:07:00,
2013-11-27 17:11:00,26.4,17.9,30.13,North,355,11.0,15.0,70,0.00,,,0.05,Wunderground v.1.15,2013-11-27 22:11:00,
2013-11-27 17:13:00,26.4,18.3,30.13,NNW,348,11.0,15.0,71,0.00,,,0.05,Wunderground v.1.15,2013-11-27 22:13:00,
2013-11-27 17:14:00,26.3,18.2,30.13,North,355,10.0,15.0,71,0.00,,,0.05,Wunderground v.1.15,2013-11-27 22:14:00,
2013-11-27 17:18:00,26.2,18.4,30.13,NNW,331,10.0,19.0,72,0.00,,,0.05,Wunderground v.1.15,2013-11-27 22:18:00,
2013-11-27 17:19:00,26.2,18.4,30.13,NNW,336,10.0,19.0,72,0.00,,,0.05,Wunderground v.1.15,2013-11-27 22:19:00,
2013-11-27 17:20:00,26.2,18.1,30.13,North,5,10.0,15.0,71,0.00,,,0.05,Wunderground v.1.15,2013-11-27 22:20:00,
2013-11-27 17:21:00,26.2,18.1,30.13,NNW,343,11.0,15.0,71,0.00,,,0.05,Wunderground v.1.15,2013-11-27 22:21:00,
2013-11-27 17:24:00,26.2,18.4,30.13,WNW,294,11.0,15.0,72,0.00,,,0.05,Wunderground v.1.15,2013-11-27 22:24:00,
2013-11-27 17:27:00,26.2,18.4,30.13,NW,321,11.0,15.0,72,0.00,,,0.05,Wunderground v.1.15,2013-11-27 22:27:00,
2013-11-27 17:28:00,26.2,18.4,30.13,NNE,21,11.0,15.0,72,0.00,,,0.05,Wunderground v.1.15,2013-11-27 22:28:00,
2013-11-27 17:29:00,26.2,18.4,30.13,WSW,256,11.0,15.0,72,0.00,,,0.05,Wunderground v.1.15,2013-11-27 22:29:00,
2013-11-27 17:32:00,26.1,18.3,30.14,NE,36,10.0,14.0,72,0.00,,,0.05,Wunderground v.1.15,2013-11-27 22:32:00,
2013-11-27 17:33:00,26.1,18.3,30.14,NW,314,10.0,14.0,72,0.00,,,0.05,Wunderground v.1.15,2013-11-27 22:33:00,
2013-11-27 17:35:00,26.1,18.3,30.14,North,5,10.0,14.0,72,0.00,,,0.05,Wunderground v.1.15,2013-11-27 22:35:00,
2013-11-27 17:36:00,26.1,18.3,30.14,North,350,9.0,14.0,72,0.00,,,0.05,Wunderground v.1.15,2013-11-27 22:36:00,
2013-11-27 17:38:00,26.1,18.6,30.14,NNW,344,9.0,14.0,73,0.00,,,0.05,Wunderground v.1.15,2013-11-27 22:38:00,
2013-11-27 17:42:00,26.0,18.2,30.15,NNE,22,8.0,22.0,72,0.00,,,0.05,Wunderground v.1.15,2013-11-27 22:42:00,
2013-11-27 17:43:00,26.0,17.9,30.14,NNW,347,8.0,22.0,71,0.00,,,0.05,Wunderground v.1.15,2013-11-27 22:43:00,
2013-11-27 17:44:00,26.0,17.9,30.15,North,360,9.0,22.0,71,0.00,,,0.05,Wunderground v.1.15,2013-11-27 22:44:00,
2013-11-27 17:48:00,26.0,18.2,30.15,WNW,296,9.0,22.0,72,0.00,,,0.05,Wunderground v.1.15,2013-11-27 22:48:00,
2013-11-27 17:51:00,25.9,18.1,30.15,NW,313,9.0,14.0,72,0.00,,,0.05,Wunderground v.1.15,2013-11-27 22:51:00,
2013-11-27 17:52:00,25.9,18.1,30.15,NW,306,9.0,14.0,72,0.00,,,0.05,Wunderground v.1.15,2013-11-27 22:52:00,
2013-11-27 17:53:00,25.9,18.1,30.15,NNW,328,8.0,14.0,72,0.00,,,0.05,Wunderground v.1.15,2013-11-27 22:53:00,
2013-11-27 17:55:00,25.9,18.4,30.15,WNW,291,8.0,14.0,73,0.00,,,0.05,Wunderground v.1.15,2013-11-27 22:55:00,
2013-11-27 17:58:00,25.8,18.0,30.15,North,355,8.0,14.0,72,0.00,,,0.05,Wunderground v.1.15,2013-11-27 22:58:00,
2013-11-27 17:59:00,25.8,18.0,30.15,NW,308,8.0,14.0,72,0.00,,,0.05,Wunderground v.1.15,2013-11-27 22:59:00,
2013-11-27 18:00:00,25.8,17.7,30.16,NNW,340,8.0,14.0,71,0.00,,,0.05,Wunderground v.1.15,2013-11-27 23:00:00,
2013-11-27 18:02:00,25.8,18.0,30.16,NW,314,9.0,14.0,72,0.00,,,0.05,Wunderground v.1.15,2013-11-27 23:02:00,
2013-11-27 18:03:00,25.8,18.0,30.15,NW,313,9.0,14.0,72,0.00,,,0.05,Wunderground v.1.15,2013-11-27 23:03:00,
2013-11-27 18:05:00,25.8,18.3,30.16,WNW,302,9.0,14.0,73,0.00,,,0.05,Wunderground v.1.15,2013-11-27 23:05:00,
2013-11-27 18:06:00,25.8,18.3,30.16,NNW,340,9.0,14.0,73,0.00,,,0.05,Wunderground v.1.15,2013-11-27 23:06:00,
2013-11-27 18:08:00,25.7,17.9,30.16,NNW,347,8.0,14.0,72,0.00,,,0.05,Wunderground v.1.15,2013-11-27 23:08:00,
2013-11-27 18:11:00,25.7,17.9,30.16,NW,317,7.0,14.0,72,0.00,,,0.05,Wunderground v.1.15,2013-11-27 23:11:00,
2013-11-27 18:12:00,25.7,17.9,30.16,NNW,336,6.0,14.0,72,0.00,,,0.05,Wunderground v.1.15,2013-11-27 23:12:00,
2013-11-27 18:14:00,25.7,17.9,30.16,NW,315,7.0,14.0,72,0.00,,,0.05,Wunderground v.1.15,2013-11-27 23:14:00,
2013-11-27 18:19:00,25.8,17.7,30.16,WNW,292,7.0,14.0,71,0.00,,,0.05,Wunderground v.1.15,2013-11-27 23:19:00,
2013-11-27 18:20:00,25.8,17.7,30.16,North,351,8.0,8.0,71,0.00,,,0.05,Wunderground v.1.15,2013-11-27 23:20:00,
2013-11-27 18:21:00,25.8,18.0,30.16,North,360,7.0,14.0,72,0.00,,,0.05,Wunderground v.1.15,2013-11-27 23:21:00,
2013-11-27 18:25:00,25.9,18.1,30.17,NW,314,7.0,14.0,72,0.00,,,0.05,Wunderground v.1.15,2013-11-27 23:25:00,
2013-11-27 18:26:00,25.9,18.4,30.17,NW,314,6.0,14.0,73,0.00,,,0.05,Wunderground v.1.15,2013-11-27 23:26:00,
2013-11-27 18:29:00,25.9,18.1,30.17,NNW,346,4.0,14.0,72,0.00,,,0.05,Wunderground v.1.15,2013-11-27 23:29:00,
2013-11-27 18:31:00,25.8,18.0,30.17,NNW,348,5.0,14.0,72,0.00,,,0.05,Wunderground v.1.15,2013-11-27 23:31:00,
2013-11-27 18:32:00,25.8,18.0,30.17,North,5,6.0,14.0,72,0.00,,,0.05,Wunderground v.1.15,2013-11-27 23:32:00,
2013-11-27 18:34:00,25.8,18.3,30.17,WNW,296,7.0,14.0,73,0.00,,,0.05,Wunderground v.1.15,2013-11-27 23:34:00,
2013-11-27 18:38:00,25.8,18.3,30.17,NW,324,8.0,14.0,73,0.00,,,0.05,Wunderground v.1.15,2013-11-27 23:38:00,
2013-11-27 18:39:00,25.8,18.3,30.18,NNW,341,8.0,14.0,73,0.00,,,0.05,Wunderground v.1.15,2013-11-27 23:39:00,
2013-11-27 18:42:00,25.7,18.2,30.18,NNW,338,8.0,14.0,73,0.00,,,0.05,Wunderground v.1.15,2013-11-27 23:42:00,
2013-11-27 18:43:00,25.7,18.2,30.18,North,351,8.0,14.0,73,0.00,,,0.05,Wunderground v.1.15,2013-11-27 23:43:00,
2013-11-27 18:44:00,25.7,18.2,30.18,NW,322,8.0,14.0,73,0.00,,,0.05,Wunderground v.1.15,2013-11-27 23:44:00,
2013-11-27 18:45:00,25.7,18.6,30.18,North,355,8.0,14.0,74,0.00,,,0.05,Wunderground v.1.15,2013-11-27 23:45:00,
2013-11-27 18:47:00,25.7,18.6,30.19,NW,309,9.0,14.0,74,0.00,,,0.05,Wunderground v.1.15,2013-11-27 23:47:00,
2013-11-27 18:48:00,25.7,18.6,30.18,WNW,301,8.0,14.0,74,0.00,,,0.05,Wunderground v.1.15,2013-11-27 23:48:00,
2013-11-27 18:49:00,25.7,18.6,30.18,NNW,340,8.0,14.0,74,0.00,,,0.05,Wunderground v.1.15,2013-11-27 23:49:00,
2013-11-27 18:50:00,25.7,18.6,30.18,NNW,331,9.0,9.0,74,0.00,,,0.05,Wunderground v.1.15,2013-11-27 23:50:00,
2013-11-27 18:53:00,25.7,18.9,30.19,NW,317,8.0,14.0,75,0.00,,,0.05,Wunderground v.1.15,2013-11-27 23:53:00,
2013-11-27 18:54:00,25.7,18.9,30.19,West,266,7.0,14.0,75,0.00,,,0.05,Wunderground v.1.15,2013-11-27 23:54:00,
2013-11-27 18:55:00,25.7,18.9,30.19,NW,309,7.0,14.0,75,0.00,,,0.05,Wunderground v.1.15,2013-11-27 23:55:00,
2013-11-27 18:57:00,25.7,18.9,30.20,WNW,303,6.0,14.0,75,0.00,,,0.05,Wunderground v.1.15,2013-11-27 23:57:00,
2013-11-27 18:58:00,25.7,18.9,30.19,ENE,61,7.0,14.0,75,0.00,,,0.05,Wunderground v.1.15,2013-11-27 23:58:00,
2013-11-27 19:00:00,25.6,19.1,30.19,NW,323,8.0,15.0,76,0.00,,,0.05,Wunderground v.1.15,2013-11-28 00:00:00,
2013-11-27 19:03:00,25.5,19.3,30.19,North,360,10.0,15.0,77,0.00,,,0.05,Wunderground v.1.15,2013-11-28 00:03:00,
2013-11-27 19:05:00,25.5,19.3,30.19,North,355,11.0,15.0,77,0.00,,,0.05,Wunderground v.1.15,2013-11-28 00:05:00,
2013-11-27 19:08:00,25.5,19.3,30.19,North,5,12.0,15.0,77,0.00,,,0.05,Wunderground v.1.15,2013-11-28 00:08:00,
2013-11-27 19:10:00,25.6,19.1,30.19,NW,312,13.0,13.0,76,0.00,,,0.05,Wunderground v.1.15,2013-11-28 00:10:00,
2013-11-27 19:11:00,25.6,19.1,30.19,North,5,13.0,14.0,76,0.00,,,0.05,Wunderground v.1.15,2013-11-28 00:11:00,
2013-11-27 19:12:00,25.6,19.1,30.19,NNW,331,12.0,14.0,76,0.00,,,0.05,Wunderground v.1.15,2013-11-28 00:12:00,
2013-11-27 19:13:00,25.6,19.4,30.20,NW,304,11.0,14.0,77,0.00,,,0.05,Wunderground v.1.15,2013-11-28 00:13:00,
2013-11-27 19:15:00,25.6,19.4,30.20,NNE,26,11.0,14.0,77,0.00,,,0.05,Wunderground v.1.15,2013-11-28 00:15:00,
2013-11-27 19:16:00,25.5,19.3,30.20,NNW,340,11.0,14.0,77,0.00,,,0.05,Wunderground v.1.15,2013-11-28 00:16:00,
2013-11-27 19:17:00,25.5,19.3,30.20,NNE,13,11.0,14.0,77,0.00,,,0.05,Wunderground v.1.15,2013-11-28 00:17:00,
2013-11-27 19:18:00,25.5,19.3,30.20,North,349,10.0,14.0,77,0.00,,,0.05,Wunderground v.1.15,2013-11-28 00:18:00,
2013-11-27 19:20:00,25.5,19.3,30.20,NNE,32,8.0,8.0,77,0.00,,,0.05,Wunderground v.1.15,2013-11-28 00:20:00,
2013-11-27 19:21:00,25.5,19.3,30.20,North,355,8.0,14.0,77,0.00,,,0.05,Wunderground v.1.15,2013-11-28 00:21:00,
2013-11-27 19:22:00,25.5,19.6,30.20,West,279,7.0,14.0,78,0.00,,,0.05,Wunderground v.1.15,2013-11-28 00:22:00,
2013-11-27 19:24:00,25.4,19.5,30.20,NNW,333,7.0,14.0,78,0.00,,,0.05,Wunderground v.1.15,2013-11-28 00:24:00,
2013-11-27 19:26:00,25.4,19.8,30.20,NNE,26,5.0,14.0,79,0.00,,,0.05,Wunderground v.1.15,2013-11-28 00:26:00,
2013-11-27 19:29:00,25.4,19.5,30.20,NNE,32,5.0,14.0,78,0.00,,,0.05,Wunderground v.1.15,2013-11-28 00:29:00,
2013-11-27 19:30:00,25.4,19.5,30.20,NNW,348,4.0,4.0,78,0.00,,,0.05,Wunderground v.1.15,2013-11-28 00:30:00,
2013-11-27 19:32:00,25.3,19.1,30.21,NNW,333,4.0,9.0,77,0.00,,,0.05,Wunderground v.1.15,2013-11-28 00:32:00,
2013-11-27 19:34:00,25.2,19.0,30.21,North,355,5.0,14.0,77,0.00,,,0.05,Wunderground v.1.15,2013-11-28 00:34:00,
2013-11-27 19:35:00,25.2,19.0,30.20,North,5,6.0,14.0,77,0.00,,,0.05,Wunderground v.1.15,2013-11-28 00:35:00,
2013-11-27 19:39:00,25.1,18.6,30.20,NNW,329,8.0,14.0,76,0.00,,,0.05,Wunderground v.1.15,2013-11-28 00:39:00,
2013-11-27 19:40:00,25.1,18.6,30.20,North,360,8.0,14.0,76,0.00,,,0.05,Wunderground v.1.15,2013-11-28 00:40:00,
2013-11-27 19:42:00,25.0,18.5,30.20,NNW,338,9.0,14.0,76,0.00,,,0.05,Wunderground v.1.15,2013-11-28 00:42:00,
2013-11-27 19:43:00,25.0,18.5,30.20,NNW,342,8.0,14.0,76,0.00,,,0.05,Wunderground v.1.15,2013-11-28 00:43:00,
2013-11-27 19:45:00,25.0,18.8,30.20,WNW,301,7.0,14.0,77,0.00,,,0.05,Wunderground v.1.15,2013-11-28 00:45:00,
2013-11-27 19:48:00,25.1,18.6,30.21,WNW,299,6.0,14.0,76,0.00,,,0.05,Wunderground v.1.15,2013-11-28 00:48:00,
2013-11-27 19:50:00,25.0,18.5,30.20,NE,36,5.0,5.0,76,0.00,,,0.05,Wunderground v.1.15,2013-11-28 00:50:00,
2013-11-27 19:51:00,25.0,18.5,30.20,NNE,29,4.0,14.0,76,0.00,,,0.05,Wunderground v.1.15,2013-11-28 00:51:00,
2013-11-27 19:54:00,24.9,18.1,30.20,NNW,340,5.0,14.0,75,0.00,,,0.05,Wunderground v.1.15,2013-11-28 00:54:00,
2013-11-27 19:55:00,24.9,17.8,30.21,North,11,6.0,14.0,74,0.00,,,0.05,Wunderground v.1.15,2013-11-28 00:55:00,
2013-11-27 19:56:00,24.9,18.1,30.20,NNW,348,6.0,14.0,75,0.00,,,0.05,Wunderground v.1.15,2013-11-28 00:56:00,
2013-11-27 19:59:00,24.9,17.8,30.20,NNW,344,6.0,14.0,74,0.00,,,0.05,Wunderground v.1.15,2013-11-28 00:59:00,
2013-11-27 20:00:00,24.9,17.8,30.20,NNE,13,6.0,6.0,74,0.00,,,0.05,Wunderground v.1.15,2013-11-28 01:00:00,
2013-11-27 20:02:00,24.9,17.8,30.21,NE,41,6.0,14.0,74,0.00,,,0.05,Wunderground v.1.15,2013-11-28 01:02:00,
2013-11-27 20:03:00,24.9,17.5,30.20,ENE,70,6.0,14.0,73,0.00,,,0.05,Wunderground v.1.15,2013-11-28 01:03:00,
2013-11-27 20:04:00,24.8,17.4,30.20,ENE,76,5.0,14.0,73,0.00,,,0.05,Wunderground v.1.15,2013-11-28 01:04:00,
2013-11-27 20:06:00,24.8,17.7,30.22,NNE,17,5.0,14.0,74,0.00,,,0.05,Wunderground v.1.15,2013-11-28 01:06:00,
2013-11-27 20:07:00,24.8,17.4,30.22,North,5,5.0,14.0,73,0.00,,,0.05,Wunderground v.1.15,2013-11-28 01:07:00,
2013-11-27 20:08:00,24.8,17.1,30.21,North,360,5.0,14.0,72,0.00,,,0.05,Wunderground v.1.15,2013-11-28 01:08:00,
2013-11-27 20:11:00,24.7,17.0,30.21,West,272,5.0,14.0,72,0.00,,,0.05,Wunderground v.1.15,2013-11-28 01:11:00,
2013-11-27 20:13:00,24.7,17.0,30.22,NW,311,4.0,14.0,72,0.00,,,0.05,Wunderground v.1.15,2013-11-28 01:13:00,
2013-11-27 20:15:00,24.7,16.3,30.21,WSW,249,5.0,14.0,70,0.00,,,0.05,Wunderground v.1.15,2013-11-28 01:15:00,
2013-11-27 20:17:00,24.6,16.5,30.22,NW,319,6.0,14.0,71,0.00,,,0.05,Wunderground v.1.15,2013-11-28 01:17:00,
2013-11-27 20:18:00,24.6,16.5,30.22,NNW,331,6.0,14.0,71,0.00,,,0.05,Wunderground v.1.15,2013-11-28 01:18:00,
2013-11-27 20:19:00,24.6,16.2,30.22,WNW,296,7.0,14.0,70,0.00,,,0.05,Wunderground v.1.15,2013-11-28 01:19:00,
2013-11-27 20:22:00,24.6,16.2,30.22,NW,314,8.0,14.0,70,0.00,,,0.05,Wunderground v.1.15,2013-11-28 01:22:00,
2013-11-27 20:23:00,24.5,16.1,30.23,North,360,8.0,15.0,70,0.00,,,0.05,Wunderground v.1.15,2013-11-28 01:23:00,
2013-11-27 20:24:00,24.5,15.8,30.22,NNE,32,8.0,15.0,69,0.00,,,0.05,Wunderground v.1.15,2013-11-28 01:24:00,
2013-11-27 20:25:00,24.5,15.8,30.22,North,360,8.0,15.0,69,0.00,,,0.05,Wunderground v.1.15,2013-11-28 01:25:00,
2013-11-27 20:27:00,24.4,15.7,30.22,South,190,7.0,15.0,69,0.00,,,0.05,Wunderground v.1.15,2013-11-28 01:27:00,
2013-11-27 20:28:00,24.4,15.3,30.22,West,275,7.0,15.0,68,0.00,,,0.05,Wunderground v.1.15,2013-11-28 01:28:00,
2013-11-27 20:30:00,24.4,15.3,30.23,ENE,65,6.0,14.0,68,0.00,,,0.05,Wunderground v.1.15,2013-11-28 01:30:00,
2013-11-27 20:31:00,24.4,15.7,30.23,WSW,248,6.0,14.0,69,0.00,,,0.05,Wunderground v.1.15,2013-11-28 01:31:00,
2013-11-27 20:37:00,24.3,15.9,30.24,South,190,4.0,14.0,70,0.00,,,0.05,Wunderground v.1.15,2013-11-28 01:37:00,
2013-11-27 20:38:00,24.3,15.9,30.23,ENE,71,4.0,14.0,70,0.00,,,0.05,Wunderground v.1.15,2013-11-28 01:38:00,
2013-11-27 20:41:00,24.3,15.9,30.24,NNE,32,5.0,14.0,70,0.00,,,0.05,Wunderground v.1.15,2013-11-28 01:41:00,
2013-11-27 20:42:00,24.3,15.6,30.24,NW,304,5.0,14.0,69,0.00,,,0.05,Wunderground v.1.15,2013-11-28 01:42:00,
2013-11-27 20:48:00,24.3,15.9,30.24,NNW,329,7.0,14.0,70,0.00,,,0.05,Wunderground v.1.15,2013-11-28 01:48:00,
2013-11-27 20:50:00,24.2,15.8,30.24,WNW,294,7.0,7.0,70,0.00,,,0.05,Wunderground v.1.15,2013-11-28 01:50:00,
2013-11-27 20:52:00,24.2,15.8,30.24,SSE,168,6.0,14.0,70,0.00,,,0.05,Wunderground v.1.15,2013-11-28 01:52:00,
2013-11-27 20:53:00,24.1,15.7,30.24,NW,325,6.0,14.0,70,0.00,,,0.05,Wunderground v.1.15,2013-11-28 01:53:00,
2013-11-27 20:54:00,24.1,15.7,30.24,NW,313,6.0,14.0,70,0.00,,,0.05,Wunderground v.1.15,2013-11-28 01:54:00,
2013-11-27 20:57:00,24.0,16.0,30.24,NNW,331,5.0,14.0,71,0.00,,,0.05,Wunderground v.1.15,2013-11-28 01:57:00,
2013-11-27 20:59:00,23.9,15.9,30.24,NNW,338,6.0,14.0,71,0.00,,,0.05,Wunderground v.1.15,2013-11-28 01:59:00,
2013-11-27 21:00:00,23.9,16.2,30.24,North,360,6.0,14.0,72,0.00,,,0.05,Wunderground v.1.15,2013-11-28 02:00:00,
2013-11-27 21:03:00,23.8,16.4,30.24,NW,309,6.0,14.0,73,0.00,,,0.05,Wunderground v.1.15,2013-11-28 02:03:00,
2013-11-27 21:05:00,23.8,16.4,30.24,North,9,6.0,14.0,73,0.00,,,0.05,Wunderground v.1.15,2013-11-28 02:05:00,
2013-11-27 21:07:00,23.8,16.4,30.24,WNW,292,6.0,15.0,73,0.00,,,0.05,Wunderground v.1.15,2013-11-28 02:07:00,
2013-11-27 21:08:00,23.8,16.1,30.25,NW,316,7.0,15.0,72,0.00,,,0.05,Wunderground v.1.15,2013-11-28 02:08:00,
2013-11-27 21:10:00,23.8,16.1,30.24,NNW,337,7.0,14.0,72,0.00,,,0.05,Wunderground v.1.15,2013-11-28 02:10:00,
2013-11-27 21:13:00,23.7,16.3,30.25,North,9,8.0,14.0,73,0.00,,,0.05,Wunderground v.1.15,2013-11-28 02:13:00,
2013-11-27 21:14:00,23.7,16.0,30.25,NW,317,9.0,14.0,72,0.00,,,0.05,Wunderground v.1.15,2013-11-28 02:14:00,
2013-11-27 21:15:00,23.7,16.0,30.24,NNW,329,9.0,14.0,72,0.00,,,0.05,Wunderground v.1.15,2013-11-28 02:15:00,
2013-11-27 21:17:00,23.7,16.0,30.24,NW,308,10.0,14.0,72,0.00,,,0.05,Wunderground v.1.15,2013-11-28 02:17:00,
2013-11-27 21:20:00,23.6,15.9,30.25,NW,310,9.0,14.0,72,0.00,,,0.05,Wunderground v.1.15,2013-11-28 02:20:00,
2013-11-27 21:23:00,23.6,15.9,30.25,NW,308,10.0,14.0,72,0.00,,,0.05,Wunderground v.1.15,2013-11-28 02:23:00,
2013-11-27 21:25:00,23.6,15.9,30.25,North,355,11.0,14.0,72,0.00,,,0.05,Wunderground v.1.15,2013-11-28 02:25:00,
2013-11-27 21:26:00,23.6,15.9,30.25,WNW,299,11.0,14.0,72,0.00,,,0.05,Wunderground v.1.15,2013-11-28 02:26:00,
2013-11-27 21:27:00,23.6,15.9,30.25,NW,314,11.0,14.0,72,0.00,,,0.05,Wunderground v.1.15,2013-11-28 02:27:00,
2013-11-27 21:28:00,23.6,16.2,30.25,NW,310,11.0,14.0,73,0.00,,,0.05,Wunderground v.1.15,2013-11-28 02:28:00,
2013-11-27 21:31:00,23.6,16.2,30.26,NNW,344,12.0,14.0,73,0.00,,,0.05,Wunderground v.1.15,2013-11-28 02:31:00,
2013-11-27 21:33:00,23.6,16.5,30.25,NW,317,11.0,14.0,74,0.00,,,0.05,Wunderground v.1.15,2013-11-28 02:33:00,
2013-11-27 21:34:00,23.6,16.5,30.26,NNE,15,11.0,21.0,74,0.00,,,0.05,Wunderground v.1.15,2013-11-28 02:34:00,
2013-11-27 21:37:00,23.6,16.5,30.26,NNE,19,11.0,21.0,74,0.00,,,0.05,Wunderground v.1.15,2013-11-28 02:37:00,
2013-11-27 21:39:00,23.5,16.4,30.26,NW,311,11.0,21.0,74,0.00,,,0.05,Wunderground v.1.15,2013-11-28 02:39:00,
2013-11-27 21:40:00,23.5,16.4,30.26,NNW,344,11.0,11.0,74,0.00,,,0.05,Wunderground v.1.15,2013-11-28 02:40:00,
2013-11-27 21:42:00,23.5,16.4,30.26,NW,309,10.0,14.0,74,0.00,,,0.05,Wunderground v.1.15,2013-11-28 02:42:00,
2013-11-27 21:44:00,23.5,16.4,30.26,WNW,302,10.0,14.0,74,0.00,,,0.05,Wunderground v.1.15,2013-11-28 02:44:00,
2013-11-27 21:45:00,23.5,16.4,30.26,West,269,9.0,14.0,74,0.00,,,0.05,Wunderground v.1.15,2013-11-28 02:45:00,
2013-11-27 21:46:00,23.5,16.4,30.26,WNW,299,9.0,14.0,74,0.00,,,0.05,Wunderground v.1.15,2013-11-28 02:46:00,
2013-11-27 21:48:00,23.5,16.4,30.26,NNW,328,8.0,14.0,74,0.00,,,0.05,Wunderground v.1.15,2013-11-28 02:48:00,
2013-11-27 21:50:00,23.5,16.4,30.26,NNW,348,7.0,14.0,74,0.00,,,0.05,Wunderground v.1.15,2013-11-28 02:50:00,
2013-11-27 21:51:00,23.5,16.4,30.26,NNW,346,7.0,14.0,74,0.00,,,0.05,Wunderground v.1.15,2013-11-28 02:51:00,
2013-11-27 21:53:00,23.4,16.0,30.26,NW,324,7.0,14.0,73,0.00,,,0.05,Wunderground v.1.15,2013-11-28 02:53:00,
2013-11-27 21:57:00,23.4,16.0,30.27,NNW,341,8.0,16.0,73,0.00,,,0.05,Wunderground v.1.15,2013-11-28 02:57:00,
2013-11-27 21:58:00,23.3,15.9,30.27,NNW,331,9.0,16.0,73,0.00,,,0.05,Wunderground v.1.15,2013-11-28 02:58:00,
2013-11-27 21:59:00,23.3,16.2,30.27,NW,313,9.0,16.0,74,0.00,,,0.05,Wunderground v.1.15,2013-11-28 02:59:00,
2013-11-27 22:04:00,23.2,15.8,30.27,NW,319,9.0,14.0,73,0.00,,,0.05,Wunderground v.1.15,2013-11-28 03:04:00,
2013-11-27 22:05:00,23.2,15.8,30.27,NW,315,9.0,14.0,73,0.00,,,0.05,Wunderground v.1.15,2013-11-28 03:05:00,
2013-11-27 22:06:00,23.2,15.5,30.27,NNW,348,9.0,14.0,72,0.00,,,0.05,Wunderground v.1.15,2013-11-28 03:06:00,
2013-11-27 22:09:00,23.2,15.5,30.28,NW,311,11.0,18.0,72,0.00,,,0.05,Wunderground v.1.15,2013-11-28 03:09:00,
2013-11-27 22:13:00,23.1,15.4,30.28,WNW,292,13.0,23.0,72,0.00,,,0.05,Wunderground v.1.15,2013-11-28 03:13:00,
2013-11-27 22:14:00,23.1,15.4,30.28,North,351,13.0,23.0,72,0.00,,,0.05,Wunderground v.1.15,2013-11-28 03:14:00,
2013-11-27 22:15:00,23.2,15.5,30.28,North,355,13.0,23.0,72,0.00,,,0.05,Wunderground v.1.15,2013-11-28 03:15:00,
2013-11-27 22:16:00,23.2,15.2,30.28,NW,311,14.0,23.0,71,0.00,,,0.05,Wunderground v.1.15,2013-11-28 03:16:00,
2013-11-27 22:18:00,23.2,15.2,30.28,NW,311,13.0,23.0,71,0.00,,,0.05,Wunderground v.1.15,2013-11-28 03:18:00,
2013-11-27 22:20:00,23.1,15.1,30.28,NNW,338,13.0,13.0,71,0.00,,,0.05,Wunderground v.1.15,2013-11-28 03:20:00,
2013-11-27 22:24:00,23.1,15.1,30.29,WNW,292,14.0,16.0,71,0.00,,,0.05,Wunderground v.1.15,2013-11-28 03:24:00,
2013-11-27 22:25:00,23.1,15.1,30.29,NW,308,14.0,16.0,71,0.00,,,0.05,Wunderground v.1.15,2013-11-28 03:25:00,
2013-11-27 22:27:00,23.1,15.1,30.29,NW,306,14.0,16.0,71,0.00,,,0.05,Wunderground v.1.15,2013-11-28 03:27:00,
2013-11-27 22:28:00,23.1,15.1,30.29,NW,318,14.0,16.0,71,0.00,,,0.05,Wunderground v.1.15,2013-11-28 03:28:00,
2013-11-27 22:29:00,23.1,15.1,30.29,NW,306,14.0,30.0,71,0.00,,,0.05,Wunderground v.1.15,2013-11-28 03:29:00,
2013-11-27 22:31:00,23.1,15.1,30.29,NNW,333,16.0,18.0,71,0.00,,,0.05,Wunderground v.1.15,2013-11-28 03:31:00,
2013-11-27 22:33:00,23.0,15.0,30.29,NNW,347,15.0,20.0,71,0.00,,,0.05,Wunderground v.1.15,2013-11-28 03:33:00,
2013-11-27 22:34:00,23.0,15.0,30.29,WNW,286,15.0,20.0,71,0.00,,,0.05,Wunderground v.1.15,2013-11-28 03:34:00,
2013-11-27 22:37:00,23.0,15.3,30.30,WNW,298,14.0,20.0,72,0.00,,,0.05,Wunderground v.1.15,2013-11-28 03:37:00,
2013-11-27 22:39:00,22.9,15.2,30.30,WNW,302,12.0,20.0,72,0.00,,,0.05,Wunderground v.1.15,2013-11-28 03:39:00,
2013-11-27 22:40:00,22.9,15.2,30.30,North,350,11.0,11.0,72,0.00,,,0.05,Wunderground v.1.15,2013-11-28 03:40:00,
2013-11-27 22:42:00,22.9,15.2,30.30,NNW,338,10.0,14.0,72,0.00,,,0.05,Wunderground v.1.15,2013-11-28 03:42:00,
2013-11-27 22:43:00,22.9,14.9,30.30,North,355,9.0,14.0,71,0.00,,,0.05,Wunderground v.1.15,2013-11-28 03:43:00,
2013-11-27 22:44:00,22.9,14.9,30.29,NW,310,9.0,14.0,71,0.00,,,0.05,Wunderground v.1.15,2013-11-28 03:44:00,
2013-11-27 22:46:00,22.9,14.9,30.30,NW,312,10.0,14.0,71,0.00,,,0.05,Wunderground v.1.15,2013-11-28 03:46:00,
2013-11-27 22:47:00,22.9,14.9,30.30,NW,309,10.0,14.0,71,0.00,,,0.05,Wunderground v.1.15,2013-11-28 03:47:00,
2013-11-27 22:49:00,22.9,15.2,30.30,NW,311,11.0,14.0,72,0.00,,,0.05,Wunderground v.1.15,2013-11-28 03:49:00,
2013-11-27 22:50:00,22.9,14.9,30.30,NW,313,11.0,11.0,71,0.00,,,0.05,Wunderground v.1.15,2013-11-28 03:50:00,
2013-11-27 22:52:00,22.9,15.2,30.30,NW,315,11.0,20.0,72,0.00,,,0.05,Wunderground v.1.15,2013-11-28 03:52:00,
2013-11-27 22:53:00,22.9,15.2,30.30,NW,323,11.0,20.0,72,0.00,,,0.05,Wunderground v.1.15,2013-11-28 03:53:00,
2013-11-27 22:56:00,22.8,15.1,30.30,NW,317,12.0,20.0,72,0.00,,,0.05,Wunderground v.1.15,2013-11-28 03:56:00,
2013-11-27 22:57:00,22.8,15.1,30.31,WNW,296,12.0,20.0,72,0.00,,,0.05,Wunderground v.1.15,2013-11-28 03:57:00,
2013-11-27 22:58:00,22.9,15.2,30.30,NNW,348,13.0,22.0,72,0.00,,,0.05,Wunderground v.1.15,2013-11-28 03:58:00,
2013-11-27 23:00:00,22.8,15.1,30.31,NNW,329,14.0,16.0,72,0.00,,,0.05,Wunderground v.1.15,2013-11-28 04:00:00,
2013-11-27 23:03:00,22.8,15.1,30.31,NW,304,14.0,22.0,72,0.00,,,0.05,Wunderground v.1.15,2013-11-28 04:03:00,
2013-11-27 23:04:00,22.8,15.4,30.31,West,281,14.0,22.0,73,0.00,,,0.05,Wunderground v.1.15,2013-11-28 04:04:00,
2013-11-27 23:06:00,22.8,15.4,30.31,NNW,338,15.0,22.0,73,0.00,,,0.05,Wunderground v.1.15,2013-11-28 04:06:00,
2013-11-27 23:07:00,22.8,15.4,30.31,NW,305,14.0,22.0,73,0.00,,,0.05,Wunderground v.1.15,2013-11-28 04:07:00,
2013-11-27 23:09:00,22.7,15.3,30.31,NW,323,13.0,22.0,73,0.00,,,0.05,Wunderground v.1.15,2013-11-28 04:09:00,
2013-11-27 23:12:00,22.7,15.3,30.31,NNW,337,12.0,13.0,73,0.00,,,0.05,Wunderground v.1.15,2013-11-28 04:12:00,
2013-11-27 23:13:00,22.7,15.3,30.31,WNW,301,11.0,13.0,73,0.00,,,0.05,Wunderground v.1.15,2013-11-28 04:13:00,
2013-11-27 23:15:00,22.7,15.7,30.32,NW,323,10.0,13.0,74,0.00,,,0.05,Wunderground v.1.15,2013-11-28 04:15:00,
2013-11-27 23:16:00,22.7,15.3,30.31,NNW,348,10.0,18.0,73,0.00,,,0.05,Wunderground v.1.15,2013-11-28 04:16:00,
2013-11-27 23:17:00,22.7,15.3,30.32,NNW,348,11.0,18.0,73,0.00,,,0.05,Wunderground v.1.15,2013-11-28 04:17:00,
2013-11-27 23:18:00,22.7,15.7,30.31,WNW,285,11.0,18.0,74,0.00,,,0.05,Wunderground v.1.15,2013-11-28 04:18:00,
2013-11-27 23:20:00,22.7,15.7,30.32,NW,313,11.0,11.0,74,0.00,,,0.05,Wunderground v.1.15,2013-11-28 04:20:00,
2013-11-27 23:21:00,22.7,15.7,30.32,NW,307,11.0,11.0,74,0.00,,,0.05,Wunderground v.1.15,2013-11-28 04:21:00,
2013-11-27 23:22:00,22.7,15.7,30.32,NW,321,12.0,12.0,74,0.00,,,0.05,Wunderground v.1.15,2013-11-28 04:22:00,
2013-11-27 23:23:00,22.7,15.7,30.32,West,279,12.0,12.0,74,0.00,,,0.05,Wunderground v.1.15,2013-11-28 04:23:00,
2013-11-27 23:26:00,22.7,15.7,30.32,West,279,12.0,14.0,74,0.00,,,0.05,Wunderground v.1.15,2013-11-28 04:26:00,
2013-11-27 23:28:00,22.6,15.9,30.32,NW,310,11.0,14.0,75,0.00,,,0.05,Wunderground v.1.15,2013-11-28 04:28:00,
2013-11-27 23:30:00,22.6,15.9,30.32,NNE,15,11.0,15.0,75,0.00,,,0.05,Wunderground v.1.15,2013-11-28 04:30:00,
2013-11-27 23:33:00,22.6,15.9,30.32,NW,325,10.0,15.0,75,0.00,,,0.05,Wunderground v.1.15,2013-11-28 04:33:00,
2013-11-27 23:34:00,22.6,15.9,30.32,NW,313,10.0,15.0,75,0.00,,,0.05,Wunderground v.1.15,2013-11-28 04:34:00,
2013-11-27 23:35:00,22.6,15.9,30.32,NNW,331,10.0,15.0,75,0.00,,,0.05,Wunderground v.1.15,2013-11-28 04:35:00,
2013-11-27 23:37:00,22.6,15.9,30.32,NW,321,11.0,15.0,75,0.00,,,0.05,Wunderground v.1.15,2013-11-28 04:37:00,
2013-11-27 23:39:00,22.6,15.9,30.33,NW,321,11.0,15.0,75,0.00,,,0.05,Wunderground v.1.15,2013-11-28 04:39:00,
2013-11-27 23:42:00,22.6,15.9,30.33,NW,315,11.0,14.0,75,0.00,,,0.05,Wunderground v.1.15,2013-11-28 04:42:00,
2013-11-27 23:43:00,22.5,15.8,30.33,NW,313,11.0,14.0,75,0.00,,,0.05,Wunderground v.1.15,2013-11-28 04:43:00,
2013-11-27 23:45:00,22.5,16.1,30.33,WNW,298,11.0,14.0,76,0.00,,,0.05,Wunderground v.1.15,2013-11-28 04:45:00,
2013-11-27 23:47:00,22.5,16.1,30.33,WNW,300,10.0,14.0,76,0.00,,,0.05,Wunderground v.1.15,2013-11-28 04:47:00,
2013-11-27 23:49:00,22.5,16.1,30.33,NW,305,10.0,14.0,76,0.00,,,0.05,Wunderground v.1.15,2013-11-28 04:49:00,
2013-11-27 23:50:00,22.5,16.1,30.33,NW,317,10.0,16.0,76,0.00,,,0.05,Wunderground v.1.15,2013-11-28 04:50:00,
2013-11-27 23:52:00,22.5,16.1,30.33,WNW,302,11.0,16.0,76,0.00,,,0.05,Wunderground v.1.15,2013-11-28 04:52:00,
2013-11-27 23:53:00,22.5,16.1,30.33,NNW,332,11.0,16.0,76,0.00,,,0.05,Wunderground v.1.15,2013-11-28 04:53:00,
2013-11-27 23:54:00,22.5,16.1,30.33,NW,312,10.0,16.0,76,0.00,,,0.05,Wunderground v.1.15,2013-11-28 04:54:00,
2013-11-27 23:55:00,22.5,16.1,30.33,NW,315,10.0,16.0,76,0.00,,,0.05,Wunderground v.1.15,2013-11-28 04:55:00,
2013-11-27 23:58:00,22.4,16.0,30.32,NW,319,11.0,16.0,76,0.00,,,0.05,Wunderground v.1.15,2013-11-28 04:58:00,
2013-11-27 23:59:00,22.4,16.0,30.32,WNW,286,11.0,16.0,76,0.00,,,0.05,Wunderground v.1.15,2013-11-28 04:59:00,